Wetterdaten: Dienstag, 10.11.2015
Datum Zeit Temp. Aussen Temp. o. S. +5cm Feuchte Auss BlattFeu 1 Luftdruck Regen Sonnenschein Regendauer Solar Windben Empfang
10.11.2015 00:00 13,9 C 13,9 C 12,2 C 73 % 0 lf 1021,5 hPa 0,0 l/m 0 min 0 min 0 W/m 37,7 km/h (5 Bft) 89,36 %
10.11.2015 00:02 13,9 C 13,9 C 12,2 C 73 % 0 lf 1021,6 hPa 0,0 l/m 0 min 0 min 0 W/m 35,6 km/h (5 Bft) 90,24 %
10.11.2015 00:06 13,9 C 13,9 C 12,2 C 73 % 0 lf 1021,6 hPa 0,0 l/m 0 min 0 min 0 W/m 46,0 km/h (6 Bft) 91,58 %
10.11.2015 00:08 13,9 C 14,4 C 12,2 C 73 % 0 lf 1021,8 hPa 0,0 l/m 0 min 0 min 0 W/m 41,8 km/h (6 Bft) 93,62 %
10.11.2015 00:10 13,9 C 14,4 C 12,2 C 73 % 0 lf 1021,8 hPa 0,0 l/m 0 min 0 min 0 W/m 35,6 km/h (5 Bft) 93,62 %
10.11.2015 00:12 14,0 C 14,4 C 12,2 C 73 % 0 lf 1021,8 hPa 0,0 l/m 0 min 0 min 0 W/m 33,5 km/h (5 Bft) 89,13 %
10.11.2015 00:14 14,0 C 14,4 C 12,2 C 73 % 0 lf 1021,7 hPa 0,0 l/m 0 min 0 min 0 W/m 41,8 km/h (6 Bft) 89,36 %
10.11.2015 00:16 14,0 C 14,4 C 12,8 C 73 % 0 lf 1021,8 hPa 0,0 l/m 0 min 0 min 0 W/m 41,8 km/h (6 Bft) 93,62 %
10.11.2015 00:18 14,1 C 14,4 C 12,8 C 73 % 0 lf 1021,8 hPa 0,0 l/m 0 min 0 min 0 W/m 41,8 km/h (6 Bft) 93,62 %
10.11.2015 00:20 14,1 C 14,4 C 12,8 C 73 % 0 lf 1021,7 hPa 0,0 l/m 0 min 0 min 0 W/m 41,8 km/h (6 Bft) 93,62 %
10.11.2015 00:22 14,1 C 14,4 C 12,8 C 73 % 0 lf 1021,9 hPa 0,0 l/m 0 min 0 min 0 W/m 37,7 km/h (5 Bft) 89,36 %
10.11.2015 00:24 14,1 C 14,4 C 12,8 C 73 % 0 lf 1021,5 hPa 0,0 l/m 0 min 0 min 0 W/m 50,2 km/h (7 Bft) 91,30 %
10.11.2015 00:26 14,1 C 14,4 C 12,8 C 73 % 0 lf 1021,7 hPa 0,0 l/m 0 min 0 min 0 W/m 50,2 km/h (7 Bft) 93,62 %
10.11.2015 00:28 14,2 C 14,4 C 12,8 C 73 % 0 lf 1021,7 hPa 0,0 l/m 0 min 0 min 0 W/m 60,7 km/h (7 Bft) 91,49 %
10.11.2015 00:30 14,2 C 14,4 C 12,8 C 73 % 0 lf 1021,8 hPa 0,0 l/m 0 min 0 min 0 W/m 41,8 km/h (6 Bft) 93,62 %
10.11.2015 00:32 14,2 C 14,4 C 12,8 C 73 % 0 lf 1021,7 hPa 0,0 l/m 0 min 0 min 0 W/m 43,9 km/h (6 Bft) 93,75 %
10.11.2015 00:34 14,2 C 14,4 C 12,8 C 73 % 0 lf 1021,8 hPa 0,0 l/m 0 min 0 min 0 W/m 41,8 km/h (6 Bft) 93,62 %
10.11.2015 00:36 14,2 C 14,4 C 12,8 C 73 % 0 lf 1021,7 hPa 0,0 l/m 0 min 0 min 0 W/m 27,2 km/h (4 Bft) 95,65 %
10.11.2015 00:38 14,2 C 14,4 C 12,8 C 73 % 0 lf 1021,8 hPa 0,0 l/m 0 min 0 min 0 W/m 41,8 km/h (6 Bft) 93,62 %
10.11.2015 00:40 14,2 C 14,4 C 12,8 C 73 % 0 lf 1021,9 hPa 0,0 l/m 0 min 0 min 0 W/m 43,9 km/h (6 Bft) 95,74 %
10.11.2015 00:42 14,2 C 14,4 C 12,8 C 73 % 0 lf 1021,8 hPa 0,0 l/m 0 min 0 min 0 W/m 41,8 km/h (6 Bft) 93,62 %
10.11.2015 00:44 14,2 C 14,4 C 12,8 C 73 % 0 lf 1021,9 hPa 0,0 l/m 0 min 0 min 0 W/m 54,4 km/h (7 Bft) 91,49 %
10.11.2015 00:46 14,2 C 14,4 C 12,8 C 73 % 0 lf 1022,0 hPa 0,0 l/m 0 min 0 min 0 W/m 35,6 km/h (5 Bft) 91,49 %
10.11.2015 00:48 14,2 C 14,4 C 12,8 C 73 % 0 lf 1022,0 hPa 0,0 l/m 0 min 0 min 0 W/m 46,0 km/h (6 Bft) 95,65 %
10.11.2015 00:50 14,2 C 14,4 C 12,8 C 73 % 0 lf 1022,0 hPa 0,0 l/m 0 min 0 min 0 W/m 41,8 km/h (6 Bft) 95,74 %
10.11.2015 00:52 14,2 C 14,4 C 12,8 C 73 % 0 lf 1022,0 hPa 0,0 l/m 0 min 0 min 0 W/m 48,1 km/h (6 Bft) 100,00 %
10.11.2015 00:54 14,2 C 14,4 C 12,8 C 73 % 0 lf 1022,1 hPa 0,0 l/m 0 min 0 min 0 W/m 54,4 km/h (7 Bft) 97,87 %
10.11.2015 00:56 14,2 C 14,4 C 12,8 C 73 % 0 lf 1022,0 hPa 0,0 l/m 0 min 0 min 0 W/m 31,4 km/h (5 Bft) 95,74 %
10.11.2015 00:58 14,2 C 14,4 C 12,8 C 73 % 0 lf 1022,1 hPa 0,0 l/m 0 min 0 min 0 W/m 25,1 km/h (4 Bft) 100,00 %
10.11.2015 01:00 14,2 C 14,4 C 12,8 C 73 % 0 lf 1022,0 hPa 0,0 l/m 0 min 0 min 0 W/m 37,7 km/h (5 Bft) 97,83 %
10.11.2015 01:02 14,2 C 14,4 C 12,8 C 73 % 0 lf 1022,0 hPa 0,0 l/m 0 min 0 min 0 W/m 39,7 km/h (6 Bft) 97,92 %
10.11.2015 01:04 14,2 C 14,4 C 12,8 C 73 % 0 lf 1022,0 hPa 0,0 l/m 0 min 0 min 0 W/m 46,0 km/h (6 Bft) 95,74 %
10.11.2015 01:06 14,2 C 14,4 C 12,8 C 73 % 0 lf 1021,9 hPa 0,0 l/m 0 min 0 min 0 W/m 41,8 km/h (6 Bft) 97,87 %
10.11.2015 01:08 14,2 C 14,4 C 12,8 C 73 % 0 lf 1021,9 hPa 0,0 l/m 0 min 0 min 0 W/m 46,0 km/h (6 Bft) 91,49 %
10.11.2015 01:10 14,2 C 14,4 C 12,8 C 73 % 2 lf 1021,8 hPa 0,0 l/m 0 min 2 min 0 W/m 39,7 km/h (6 Bft) 95,65 %
10.11.2015 01:12 14,2 C 14,4 C 12,2 C 74 % 0 lf 1021,9 hPa 0,0 l/m 0 min 0 min 0 W/m 37,7 km/h (5 Bft) 95,74 %
10.11.2015 01:14 14,2 C 14,4 C 12,8 C 73 % 0 lf 1021,8 hPa 0,0 l/m 0 min 0 min 0 W/m 43,9 km/h (6 Bft) 95,74 %
10.11.2015 01:16 14,2 C 14,4 C 12,8 C 74 % 0 lf 1021,8 hPa 0,0 l/m 0 min 0 min 0 W/m 35,6 km/h (5 Bft) 97,87 %
10.11.2015 01:18 14,2 C 14,4 C 12,8 C 73 % 0 lf 1021,8 hPa 0,0 l/m 0 min 0 min 0 W/m 39,7 km/h (6 Bft) 95,74 %
10.11.2015 01:20 14,2 C 14,4 C 12,8 C 74 % 0 lf 1021,7 hPa 0,0 l/m 0 min 0 min 0 W/m 29,3 km/h (5 Bft) 97,87 %
10.11.2015 01:22 14,2 C 14,4 C 12,8 C 74 % 0 lf 1021,7 hPa 0,0 l/m 0 min 0 min 0 W/m 48,1 km/h (6 Bft) 95,65 %
10.11.2015 01:24 14,2 C 14,4 C 12,8 C 74 % 0 lf 1021,7 hPa 0,0 l/m 0 min 0 min 0 W/m 35,6 km/h (5 Bft) 95,74 %
10.11.2015 01:26 14,2 C 14,4 C 12,8 C 74 % 0 lf 1021,6 hPa 0,0 l/m 0 min 0 min 0 W/m 35,6 km/h (5 Bft) 93,62 %
10.11.2015 01:28 14,2 C 14,4 C 12,8 C 74 % 0 lf 1021,6 hPa 0,0 l/m 0 min 0 min 0 W/m 52,3 km/h (7 Bft) 97,87 %
10.11.2015 01:30 14,2 C 14,4 C 12,8 C 74 % 0 lf 1021,6 hPa 0,0 l/m 0 min 0 min 0 W/m 37,7 km/h (5 Bft) 97,87 %
10.11.2015 01:32 14,2 C 14,4 C 12,8 C 74 % 0 lf 1021,6 hPa 0,0 l/m 0 min 0 min 0 W/m 52,3 km/h (7 Bft) 100,00 %
10.11.2015 01:34 14,2 C 14,4 C 12,8 C 74 % 0 lf 1021,6 hPa 0,0 l/m 0 min 0 min 0 W/m 35,6 km/h (5 Bft) 100,00 %
10.11.2015 01:36 14,2 C 14,4 C 12,8 C 74 % 0 lf 1021,6 hPa 0,0 l/m 0 min 0 min 0 W/m 46,0 km/h (6 Bft) 97,87 %
10.11.2015 01:38 14,2 C 14,4 C 12,8 C 74 % 0 lf 1021,6 hPa 0,0 l/m 0 min 0 min 0 W/m 35,6 km/h (5 Bft) 100,00 %
10.11.2015 01:40 14,2 C 14,4 C 12,8 C 74 % 0 lf 1021,7 hPa 0,0 l/m 0 min 0 min 0 W/m 41,8 km/h (6 Bft) 95,74 %
10.11.2015 01:42 14,2 C 14,4 C 12,8 C 74 % 0 lf 1021,7 hPa 0,0 l/m 0 min 0 min 0 W/m 43,9 km/h (6 Bft) 97,87 %
10.11.2015 01:44 14,2 C 14,4 C 12,8 C 74 % 0 lf 1021,7 hPa 0,0 l/m 0 min 0 min 0 W/m 35,6 km/h (5 Bft) 100,00 %
10.11.2015 01:46 14,2 C 14,4 C 12,8 C 74 % 0 lf 1021,6 hPa 0,0 l/m 0 min 0 min 0 W/m 41,8 km/h (6 Bft) 100,00 %
10.11.2015 01:48 14,2 C 13,9 C 12,2 C 74 % 0 lf 1021,6 hPa 0,0 l/m 0 min 0 min 0 W/m 46,0 km/h (6 Bft) 97,87 %
10.11.2015 01:50 14,2 C 14,4 C 12,2 C 74 % 0 lf 1021,5 hPa 0,0 l/m 0 min 0 min 0 W/m 48,1 km/h (6 Bft) 100,00 %
10.11.2015 01:52 14,2 C 14,4 C 12,2 C 74 % 0 lf 1021,6 hPa 0,0 l/m 0 min 0 min 0 W/m 37,7 km/h (5 Bft) 97,87 %
10.11.2015 01:54 14,2 C 14,4 C 12,8 C 74 % 0 lf 1021,6 hPa 0,0 l/m 0 min 0 min 0 W/m 46,0 km/h (6 Bft) 100,00 %
10.11.2015 01:56 14,2 C 14,4 C 12,8 C 74 % 0 lf 1021,5 hPa 0,0 l/m 0 min 0 min 0 W/m 43,9 km/h (6 Bft) 97,87 %
10.11.2015 01:58 14,2 C 14,4 C 12,8 C 74 % 0 lf 1021,5 hPa 0,0 l/m 0 min 0 min 0 W/m 39,7 km/h (6 Bft) 100,00 %
10.11.2015 02:00 14,2 C 14,4 C 12,8 C 74 % 0 lf 1021,5 hPa 0,0 l/m 0 min 0 min 0 W/m 43,9 km/h (6 Bft) 97,87 %
10.11.2015 02:02 14,2 C 14,4 C 12,8 C 75 % 0 lf 1021,5 hPa 0,0 l/m 0 min 0 min 0 W/m 46,0 km/h (6 Bft) 97,92 %
10.11.2015 02:04 14,2 C 14,4 C 12,8 C 74 % 0 lf 1021,4 hPa 0,0 l/m 0 min 0 min 0 W/m 39,7 km/h (6 Bft) 100,00 %
10.11.2015 02:06 14,2 C 14,4 C 12,8 C 75 % 0 lf 1021,5 hPa 0,0 l/m 0 min 0 min 0 W/m 48,1 km/h (6 Bft) 97,83 %
10.11.2015 02:08 14,2 C 14,4 C 12,8 C 75 % 0 lf 1021,5 hPa 0,0 l/m 0 min 0 min 0 W/m 46,0 km/h (6 Bft) 100,00 %
10.11.2015 02:10 14,2 C 14,4 C 12,8 C 75 % 0 lf 1021,5 hPa 0,0 l/m 0 min 0 min 0 W/m 29,3 km/h (5 Bft) 100,00 %
10.11.2015 02:12 14,2 C 14,4 C 12,8 C 75 % 0 lf 1021,5 hPa 0,0 l/m 0 min 0 min 0 W/m 43,9 km/h (6 Bft) 100,00 %
10.11.2015 02:14 14,2 C 14,4 C 12,8 C 75 % 0 lf 1021,6 hPa 0,0 l/m 0 min 0 min 0 W/m 48,1 km/h (6 Bft) 100,00 %
10.11.2015 02:16 14,2 C 14,4 C 12,8 C 75 % 0 lf 1021,6 hPa 0,0 l/m 0 min 0 min 0 W/m 48,1 km/h (6 Bft) 95,74 %
10.11.2015 02:18 14,2 C 14,4 C 12,8 C 75 % 0 lf 1021,5 hPa 0,0 l/m 0 min 0 min 0 W/m 46,0 km/h (6 Bft) 100,00 %
10.11.2015 02:20 14,2 C 14,4 C 12,8 C 75 % 0 lf 1021,5 hPa 0,0 l/m 0 min 0 min 0 W/m 41,8 km/h (6 Bft) 100,00 %
10.11.2015 02:22 14,2 C 14,4 C 12,8 C 75 % 0 lf 1021,6 hPa 0,0 l/m 0 min 0 min 0 W/m 37,7 km/h (5 Bft) 97,83 %
10.11.2015 02:24 14,2 C 14,4 C 12,8 C 75 % 0 lf 1021,5 hPa 0,0 l/m 0 min 0 min 0 W/m 39,7 km/h (6 Bft) 95,74 %
10.11.2015 02:26 14,2 C 14,4 C 12,8 C 75 % 0 lf 1021,6 hPa 0,0 l/m 0 min 0 min 0 W/m 41,8 km/h (6 Bft) 97,87 %
10.11.2015 02:28 14,2 C 14,4 C 12,8 C 75 % 0 lf 1021,6 hPa 0,0 l/m 0 min 0 min 0 W/m 37,7 km/h (5 Bft) 97,87 %
10.11.2015 02:30 14,2 C 14,4 C 12,8 C 75 % 0 lf 1021,5 hPa 0,0 l/m 0 min 0 min 0 W/m 33,5 km/h (5 Bft) 100,00 %
10.11.2015 02:32 14,2 C 14,4 C 12,8 C 75 % 0 lf 1021,6 hPa 0,0 l/m 0 min 0 min 0 W/m 48,1 km/h (6 Bft) 97,87 %
10.11.2015 02:34 14,2 C 14,4 C 12,8 C 75 % 0 lf 1021,5 hPa 0,0 l/m 0 min 0 min 0 W/m 46,0 km/h (6 Bft) 95,65 %
10.11.2015 02:36 14,2 C 14,4 C 12,8 C 75 % 0 lf 1021,6 hPa 0,0 l/m 0 min 0 min 0 W/m 46,0 km/h (6 Bft) 95,74 %
10.11.2015 02:38 14,2 C 14,4 C 12,8 C 75 % 0 lf 1021,5 hPa 0,0 l/m 0 min 0 min 0 W/m 41,8 km/h (6 Bft) 97,87 %
10.11.2015 02:40 14,2 C 14,4 C 12,8 C 75 % 0 lf 1021,6 hPa 0,0 l/m 0 min 0 min 0 W/m 35,6 km/h (5 Bft) 95,74 %
10.11.2015 02:42 14,2 C 13,9 C 12,8 C 76 % 0 lf 1021,6 hPa 0,0 l/m 0 min 0 min 0 W/m 35,6 km/h (5 Bft) 93,62 %
10.11.2015 02:44 14,2 C 14,4 C 12,8 C 76 % 0 lf 1021,7 hPa 0,0 l/m 0 min 0 min 0 W/m 54,4 km/h (7 Bft) 97,87 %
10.11.2015 02:46 14,2 C 14,4 C 12,8 C 76 % 0 lf 1021,8 hPa 0,0 l/m 0 min 0 min 0 W/m 41,8 km/h (6 Bft) 95,65 %
10.11.2015 02:48 14,1 C 14,4 C 12,8 C 76 % 0 lf 1021,7 hPa 0,0 l/m 0 min 0 min 0 W/m 48,1 km/h (6 Bft) 97,87 %
10.11.2015 02:50 14,1 C 14,4 C 12,8 C 76 % 0 lf 1021,9 hPa 0,0 l/m 0 min 0 min 0 W/m 46,0 km/h (6 Bft) 93,62 %
10.11.2015 02:52 14,1 C 14,4 C 12,8 C 76 % 0 lf 1021,8 hPa 0,0 l/m 0 min 0 min 0 W/m 41,8 km/h (6 Bft) 95,74 %
10.11.2015 02:54 14,1 C 13,9 C 12,8 C 76 % 0 lf 1021,8 hPa 0,0 l/m 0 min 0 min 0 W/m 35,6 km/h (5 Bft) 95,74 %
10.11.2015 02:56 14,1 C 13,9 C 12,2 C 76 % 0 lf 1021,8 hPa 0,0 l/m 0 min 0 min 0 W/m 37,7 km/h (5 Bft) 93,62 %
10.11.2015 02:58 14,1 C 13,9 C 12,8 C 76 % 0 lf 1021,8 hPa 0,0 l/m 0 min 0 min 0 W/m 35,6 km/h (5 Bft) 91,30 %
10.11.2015 03:00 14,1 C 13,9 C 12,8 C 77 % 0 lf 1021,9 hPa 0,0 l/m 0 min 0 min 0 W/m 33,5 km/h (5 Bft) 93,62 %
10.11.2015 03:02 14,1 C 13,9 C 12,8 C 77 % 0 lf 1021,9 hPa 0,0 l/m 0 min 0 min 0 W/m 50,2 km/h (7 Bft) 93,62 %
10.11.2015 03:04 14,1 C 13,9 C 12,8 C 77 % 0 lf 1022,0 hPa 0,0 l/m 0 min 0 min 0 W/m 41,8 km/h (6 Bft) 93,62 %
10.11.2015 03:06 14,0 C 13,9 C 12,8 C 77 % 0 lf 1021,9 hPa 0,0 l/m 0 min 0 min 0 W/m 41,8 km/h (6 Bft) 93,62 %
10.11.2015 03:08 14,0 C 13,9 C 12,8 C 77 % 0 lf 1022,0 hPa 0,0 l/m 0 min 0 min 0 W/m 39,7 km/h (6 Bft) 91,30 %
10.11.2015 03:10 14,1 C 13,9 C 12,8 C 77 % 0 lf 1022,0 hPa 0,0 l/m 0 min 0 min 0 W/m 52,3 km/h (7 Bft) 89,36 %
10.11.2015 03:12 14,0 C 13,9 C 12,8 C 77 % 0 lf 1022,1 hPa 0,0 l/m 0 min 0 min 0 W/m 46,0 km/h (6 Bft) 91,49 %
10.11.2015 03:14 14,0 C 13,9 C 12,2 C 77 % 0 lf 1022,0 hPa 0,0 l/m 0 min 0 min 0 W/m 35,6 km/h (5 Bft) 95,74 %
10.11.2015 03:16 14,0 C 13,9 C 12,2 C 77 % 0 lf 1022,0 hPa 0,0 l/m 0 min 0 min 0 W/m 46,0 km/h (6 Bft) 89,36 %
10.11.2015 03:18 14,0 C 13,9 C 12,2 C 77 % 0 lf 1021,9 hPa 0,0 l/m 0 min 0 min 0 W/m 35,6 km/h (5 Bft) 91,49 %
10.11.2015 03:20 14,0 C 13,9 C 12,2 C 78 % 0 lf 1021,9 hPa 0,0 l/m 0 min 0 min 0 W/m 50,2 km/h (7 Bft) 91,30 %
10.11.2015 03:22 14,0 C 13,9 C 12,2 C 78 % 0 lf 1022,0 hPa 0,0 l/m 0 min 0 min 0 W/m 41,8 km/h (6 Bft) 91,49 %
10.11.2015 03:24 13,9 C 13,9 C 12,2 C 78 % 0 lf 1021,9 hPa 0,0 l/m 0 min 0 min 0 W/m 46,0 km/h (6 Bft) 87,23 %
10.11.2015 03:26 13,9 C 13,9 C 12,2 C 78 % 0 lf 1021,9 hPa 0,0 l/m 0 min 0 min 0 W/m 39,7 km/h (6 Bft) 91,49 %
10.11.2015 03:28 13,9 C 13,9 C 12,2 C 78 % 0 lf 1021,9 hPa 0,0 l/m 0 min 0 min 0 W/m 39,7 km/h (6 Bft) 95,74 %
10.11.2015 03:30 13,9 C 13,9 C 12,2 C 78 % 0 lf 1022,0 hPa 0,0 l/m 0 min 0 min 0 W/m 43,9 km/h (6 Bft) 95,74 %
10.11.2015 03:32 13,9 C 13,9 C 12,2 C 78 % 0 lf 1021,9 hPa 0,0 l/m 0 min 0 min 0 W/m 37,7 km/h (5 Bft) 95,65 %
10.11.2015 03:34 13,9 C 13,9 C 12,2 C 78 % 0 lf 1021,9 hPa 0,0 l/m 0 min 0 min 0 W/m 39,7 km/h (6 Bft) 93,62 %
10.11.2015 03:36 13,9 C 13,9 C 12,2 C 79 % 0 lf 1021,9 hPa 0,0 l/m 0 min 0 min 0 W/m 39,7 km/h (6 Bft) 97,87 %
10.11.2015 03:38 13,9 C 13,9 C 12,2 C 79 % 0 lf 1022,0 hPa 0,0 l/m 0 min 0 min 0 W/m 48,1 km/h (6 Bft) 93,62 %
10.11.2015 03:40 13,8 C 13,9 C 12,2 C 79 % 0 lf 1021,9 hPa 0,0 l/m 0 min 0 min 0 W/m 43,9 km/h (6 Bft) 93,62 %
10.11.2015 03:42 13,8 C 13,9 C 12,2 C 79 % 0 lf 1021,8 hPa 0,0 l/m 0 min 0 min 0 W/m 41,8 km/h (6 Bft) 91,49 %
10.11.2015 03:44 13,8 C 13,9 C 12,2 C 79 % 0 lf 1021,9 hPa 0,0 l/m 0 min 0 min 0 W/m 35,6 km/h (5 Bft) 91,30 %
10.11.2015 03:46 13,8 C 13,9 C 12,2 C 79 % 0 lf 1021,7 hPa 0,0 l/m 0 min 0 min 0 W/m 27,2 km/h (4 Bft) 95,74 %
10.11.2015 03:48 13,8 C 13,9 C 12,2 C 79 % 0 lf 1021,7 hPa 0,0 l/m 0 min 0 min 0 W/m 48,1 km/h (6 Bft) 95,74 %
10.11.2015 03:50 13,8 C 13,9 C 12,2 C 79 % 0 lf 1021,7 hPa 0,0 l/m 0 min 0 min 0 W/m 43,9 km/h (6 Bft) 97,87 %
10.11.2015 03:52 13,8 C 13,9 C 12,2 C 79 % 0 lf 1021,7 hPa 0,0 l/m 0 min 0 min 0 W/m 43,9 km/h (6 Bft) 95,74 %
10.11.2015 03:54 13,8 C 13,9 C 12,2 C 79 % 0 lf 1021,8 hPa 0,0 l/m 0 min 0 min 0 W/m 33,5 km/h (5 Bft) 97,87 %
10.11.2015 03:56 13,8 C 13,9 C 12,2 C 80 % 0 lf 1021,7 hPa 0,0 l/m 0 min 0 min 0 W/m 48,1 km/h (6 Bft) 97,83 %
10.11.2015 03:58 13,8 C 13,9 C 12,2 C 80 % 0 lf 1021,6 hPa 0,0 l/m 0 min 0 min 0 W/m 48,1 km/h (6 Bft) 93,62 %
10.11.2015 04:00 13,8 C 13,9 C 12,2 C 80 % 0 lf 1021,6 hPa 0,0 l/m 0 min 0 min 0 W/m 33,5 km/h (5 Bft) 95,74 %
10.11.2015 04:05 13,7 C 13,9 C 12,2 C 80 % 0 lf 1021,7 hPa 0,0 l/m 0 min 0 min 0 W/m 31,4 km/h (5 Bft) 96,43 %
10.11.2015 04:06 13,7 C 13,9 C 12,2 C 80 % 0 lf 1021,7 hPa 0,0 l/m 0 min 0 min 0 W/m 33,5 km/h (5 Bft) 100,00 %
10.11.2015 04:08 13,7 C 13,9 C 12,2 C 80 % 0 lf 1021,8 hPa 0,0 l/m 0 min 0 min 0 W/m 35,6 km/h (5 Bft) 97,83 %
10.11.2015 04:10 13,7 C 13,9 C 12,2 C 80 % 0 lf 1021,7 hPa 0,0 l/m 0 min 0 min 0 W/m 33,5 km/h (5 Bft) 95,74 %
10.11.2015 04:12 13,7 C 13,9 C 12,2 C 81 % 0 lf 1021,7 hPa 0,0 l/m 0 min 0 min 0 W/m 31,4 km/h (5 Bft) 91,49 %
10.11.2015 04:14 13,7 C 13,9 C 12,2 C 81 % 0 lf 1021,7 hPa 0,0 l/m 0 min 0 min 0 W/m 35,6 km/h (5 Bft) 97,87 %
10.11.2015 04:16 13,7 C 13,9 C 12,2 C 81 % 0 lf 1021,6 hPa 0,0 l/m 0 min 0 min 0 W/m 31,4 km/h (5 Bft) 97,87 %
10.11.2015 04:18 13,7 C 13,9 C 12,2 C 81 % 0 lf 1021,6 hPa 0,0 l/m 0 min 0 min 0 W/m 39,7 km/h (6 Bft) 95,65 %
10.11.2015 04:20 13,7 C 13,9 C 12,2 C 81 % 0 lf 1021,6 hPa 0,0 l/m 0 min 0 min 0 W/m 52,3 km/h (7 Bft) 100,00 %
10.11.2015 04:22 13,7 C 13,9 C 12,2 C 82 % 0 lf 1021,7 hPa 0,0 l/m 0 min 0 min 0 W/m 39,7 km/h (6 Bft) 95,74 %
10.11.2015 04:24 13,7 C 13,9 C 12,2 C 82 % 0 lf 1021,6 hPa 0,0 l/m 0 min 0 min 0 W/m 41,8 km/h (6 Bft) 97,87 %
10.11.2015 04:26 13,6 C 13,9 C 12,2 C 82 % 0 lf 1021,7 hPa 0,0 l/m 0 min 0 min 0 W/m 39,7 km/h (6 Bft) 97,87 %
10.11.2015 04:28 13,6 C 13,9 C 12,2 C 82 % 0 lf 1021,5 hPa 0,0 l/m 0 min 0 min 0 W/m 33,5 km/h (5 Bft) 100,00 %
10.11.2015 04:30 13,6 C 13,9 C 12,2 C 83 % 0 lf 1021,6 hPa 0,0 l/m 0 min 0 min 0 W/m 33,5 km/h (5 Bft) 93,48 %
10.11.2015 04:32 13,6 C 13,9 C 12,2 C 83 % 0 lf 1021,6 hPa 0,0 l/m 0 min 0 min 0 W/m 41,8 km/h (6 Bft) 100,00 %
10.11.2015 04:34 13,6 C 13,9 C 12,2 C 83 % 0 lf 1021,6 hPa 0,0 l/m 0 min 0 min 0 W/m 25,1 km/h (4 Bft) 100,00 %
10.11.2015 04:36 13,6 C 13,9 C 12,2 C 83 % 0 lf 1021,5 hPa 0,0 l/m 0 min 0 min 0 W/m 31,4 km/h (5 Bft) 100,00 %
10.11.2015 04:38 13,6 C 13,3 C 12,2 C 83 % 0 lf 1021,6 hPa 0,0 l/m 0 min 0 min 0 W/m 43,9 km/h (6 Bft) 100,00 %
10.11.2015 04:40 13,6 C 13,3 C 12,2 C 83 % 0 lf 1021,6 hPa 0,0 l/m 0 min 0 min 0 W/m 33,5 km/h (5 Bft) 97,87 %
10.11.2015 04:42 13,5 C 13,3 C 12,2 C 83 % 0 lf 1021,6 hPa 0,0 l/m 0 min 0 min 0 W/m 33,5 km/h (5 Bft) 100,00 %
10.11.2015 04:44 13,5 C 13,3 C 12,2 C 83 % 0 lf 1021,6 hPa 0,0 l/m 0 min 0 min 0 W/m 43,9 km/h (6 Bft) 100,00 %
10.11.2015 04:46 13,5 C 13,3 C 12,2 C 83 % 0 lf 1021,6 hPa 0,0 l/m 0 min 0 min 0 W/m 43,9 km/h (6 Bft) 100,00 %
10.11.2015 04:48 13,4 C 13,3 C 12,2 C 83 % 0 lf 1021,6 hPa 0,0 l/m 0 min 0 min 0 W/m 33,5 km/h (5 Bft) 97,87 %
10.11.2015 04:50 13,4 C 13,3 C 12,2 C 84 % 0 lf 1021,6 hPa 0,0 l/m 0 min 0 min 0 W/m 31,4 km/h (5 Bft) 100,00 %
10.11.2015 04:52 13,4 C 13,3 C 12,2 C 84 % 0 lf 1021,6 hPa 0,0 l/m 0 min 0 min 0 W/m 35,6 km/h (5 Bft) 97,87 %
10.11.2015 04:54 13,4 C 13,3 C 12,2 C 84 % 0 lf 1021,5 hPa 0,0 l/m 0 min 0 min 0 W/m 41,8 km/h (6 Bft) 97,83 %
10.11.2015 04:56 13,4 C 13,3 C 12,2 C 84 % 0 lf 1021,6 hPa 0,0 l/m 0 min 0 min 0 W/m 33,5 km/h (5 Bft) 97,87 %
10.11.2015 04:58 13,4 C 13,3 C 11,7 C 84 % 0 lf 1021,6 hPa 0,0 l/m 0 min 0 min 0 W/m 39,7 km/h (6 Bft) 95,74 %
10.11.2015 05:00 13,3 C 13,3 C 11,7 C 84 % 0 lf 1021,6 hPa 0,0 l/m 0 min 0 min 0 W/m 37,7 km/h (5 Bft) 95,74 %
10.11.2015 05:02 13,3 C 13,3 C 11,7 C 84 % 0 lf 1021,5 hPa 0,0 l/m 0 min 0 min 0 W/m 33,5 km/h (5 Bft) 93,62 %
10.11.2015 05:04 13,3 C 13,3 C 11,7 C 85 % 0 lf 1021,5 hPa 0,0 l/m 0 min 0 min 0 W/m 43,9 km/h (6 Bft) 97,87 %
10.11.2015 05:06 13,3 C 13,3 C 11,7 C 85 % 0 lf 1021,5 hPa 0,0 l/m 0 min 0 min 0 W/m 31,4 km/h (5 Bft) 95,65 %
10.11.2015 05:08 13,3 C 13,3 C 11,7 C 85 % 0 lf 1021,5 hPa 0,0 l/m 0 min 0 min 0 W/m 37,7 km/h (5 Bft) 97,87 %
10.11.2015 05:10 13,2 C 13,3 C 11,7 C 85 % 0 lf 1021,6 hPa 0,0 l/m 0 min 0 min 0 W/m 31,4 km/h (5 Bft) 95,74 %
10.11.2015 05:12 13,2 C 13,3 C 11,7 C 86 % 0 lf 1021,5 hPa 0,0 l/m 0 min 0 min 0 W/m 31,4 km/h (5 Bft) 97,87 %
10.11.2015 05:14 13,2 C 13,3 C 11,7 C 86 % 0 lf 1021,7 hPa 0,0 l/m 0 min 0 min 0 W/m 39,7 km/h (6 Bft) 95,74 %
10.11.2015 05:16 13,2 C 13,3 C 11,7 C 86 % 0 lf 1021,6 hPa 0,0 l/m 0 min 0 min 0 W/m 33,5 km/h (5 Bft) 97,87 %
10.11.2015 05:18 13,2 C 13,3 C 11,7 C 86 % 0 lf 1021,6 hPa 0,0 l/m 0 min 0 min 0 W/m 35,6 km/h (5 Bft) 97,83 %
10.11.2015 05:20 13,1 C 13,3 C 11,7 C 86 % 0 lf 1021,6 hPa 0,0 l/m 0 min 0 min 0 W/m 31,4 km/h (5 Bft) 95,74 %
10.11.2015 05:22 13,1 C 13,3 C 11,7 C 86 % 0 lf 1021,6 hPa 0,0 l/m 0 min 0 min 0 W/m 29,3 km/h (5 Bft) 97,87 %
10.11.2015 05:24 13,1 C 13,3 C 11,7 C 86 % 0 lf 1021,7 hPa 0,0 l/m 0 min 0 min 0 W/m 39,7 km/h (6 Bft) 97,87 %
10.11.2015 05:26 13,1 C 13,3 C 11,7 C 86 % 0 lf 1021,7 hPa 0,0 l/m 0 min 0 min 0 W/m 33,5 km/h (5 Bft) 97,87 %
10.11.2015 05:28 13,1 C 13,3 C 11,7 C 86 % 0 lf 1021,7 hPa 0,0 l/m 0 min 0 min 0 W/m 31,4 km/h (5 Bft) 97,87 %
10.11.2015 05:30 13,1 C 13,3 C 11,7 C 86 % 0 lf 1021,6 hPa 0,0 l/m 0 min 0 min 0 W/m 29,3 km/h (5 Bft) 97,83 %
10.11.2015 05:32 13,1 C 13,3 C 11,7 C 86 % 0 lf 1021,6 hPa 0,0 l/m 0 min 0 min 0 W/m 27,2 km/h (4 Bft) 93,75 %
10.11.2015 05:34 13,1 C 13,3 C 11,7 C 86 % 0 lf 1021,6 hPa 0,0 l/m 0 min 0 min 0 W/m 37,7 km/h (5 Bft) 91,49 %
10.11.2015 05:36 13,1 C 13,3 C 11,7 C 86 % 0 lf 1021,5 hPa 0,0 l/m 0 min 0 min 0 W/m 33,5 km/h (5 Bft) 93,62 %
10.11.2015 05:38 13,1 C 13,3 C 11,7 C 86 % 0 lf 1021,5 hPa 0,0 l/m 0 min 0 min 0 W/m 27,2 km/h (4 Bft) 97,87 %
10.11.2015 05:40 13,1 C 13,3 C 11,7 C 86 % 0 lf 1021,5 hPa 0,0 l/m 0 min 0 min 0 W/m 29,3 km/h (5 Bft) 97,83 %
10.11.2015 05:42 13,1 C 13,3 C 11,7 C 86 % 0 lf 1021,5 hPa 0,0 l/m 0 min 0 min 0 W/m 29,3 km/h (5 Bft) 93,62 %
10.11.2015 05:44 13,1 C 13,3 C 12,2 C 86 % 0 lf 1021,5 hPa 0,0 l/m 0 min 0 min 0 W/m 37,7 km/h (5 Bft) 95,74 %
10.11.2015 05:46 13,1 C 13,3 C 11,7 C 86 % 0 lf 1021,5 hPa 0,0 l/m 0 min 0 min 0 W/m 29,3 km/h (5 Bft) 95,74 %
10.11.2015 05:48 13,2 C 13,3 C 12,2 C 86 % 0 lf 1021,4 hPa 0,0 l/m 0 min 0 min 0 W/m 27,2 km/h (4 Bft) 97,87 %
10.11.2015 05:50 13,2 C 13,3 C 12,2 C 86 % 0 lf 1021,5 hPa 0,0 l/m 0 min 0 min 0 W/m 33,5 km/h (5 Bft) 97,87 %
10.11.2015 05:52 13,2 C 13,3 C 12,2 C 86 % 0 lf 1021,6 hPa 0,0 l/m 0 min 0 min 0 W/m 31,4 km/h (5 Bft) 97,83 %
10.11.2015 05:54 13,2 C 13,3 C 12,2 C 86 % 0 lf 1021,5 hPa 0,0 l/m 0 min 0 min 0 W/m 37,7 km/h (5 Bft) 95,74 %
10.11.2015 05:56 13,2 C 13,3 C 12,2 C 86 % 0 lf 1021,5 hPa 0,0 l/m 0 min 0 min 0 W/m 37,7 km/h (5 Bft) 91,49 %
10.11.2015 05:58 13,2 C 13,3 C 12,2 C 86 % 0 lf 1021,5 hPa 0,0 l/m 0 min 0 min 0 W/m 41,8 km/h (6 Bft) 95,74 %
10.11.2015 06:00 13,2 C 13,3 C 12,2 C 86 % 0 lf 1021,4 hPa 0,0 l/m 0 min 0 min 0 W/m 37,7 km/h (5 Bft) 91,49 %
10.11.2015 06:02 13,3 C 13,3 C 12,2 C 86 % 0 lf 1021,4 hPa 0,0 l/m 0 min 0 min 0 W/m 48,1 km/h (6 Bft) 97,92 %
10.11.2015 06:04 13,3 C 13,3 C 12,2 C 86 % 0 lf 1021,5 hPa 0,0 l/m 0 min 0 min 0 W/m 41,8 km/h (6 Bft) 95,74 %
10.11.2015 06:06 13,3 C 13,3 C 12,2 C 86 % 0 lf 1021,4 hPa 0,0 l/m 0 min 0 min 0 W/m 33,5 km/h (5 Bft) 95,65 %
10.11.2015 06:08 13,3 C 13,3 C 12,2 C 86 % 0 lf 1021,4 hPa 0,0 l/m 0 min 0 min 0 W/m 29,3 km/h (5 Bft) 95,74 %
10.11.2015 06:10 13,3 C 13,3 C 12,2 C 86 % 0 lf 1021,4 hPa 0,0 l/m 0 min 0 min 0 W/m 33,5 km/h (5 Bft) 93,62 %
10.11.2015 06:12 13,3 C 13,3 C 12,2 C 86 % 0 lf 1021,3 hPa 0,0 l/m 0 min 0 min 0 W/m 31,4 km/h (5 Bft) 95,74 %
10.11.2015 06:14 13,3 C 13,3 C 12,2 C 86 % 0 lf 1021,4 hPa 0,0 l/m 0 min 0 min 0 W/m 41,8 km/h (6 Bft) 93,62 %
10.11.2015 06:16 13,3 C 13,3 C 12,2 C 86 % 0 lf 1021,3 hPa 0,0 l/m 0 min 0 min 0 W/m 37,7 km/h (5 Bft) 97,83 %
10.11.2015 06:18 13,3 C 13,3 C 12,2 C 86 % 0 lf 1021,3 hPa 0,0 l/m 0 min 0 min 0 W/m 33,5 km/h (5 Bft) 95,74 %
10.11.2015 06:20 13,3 C 13,3 C 12,2 C 86 % 0 lf 1021,3 hPa 0,0 l/m 0 min 0 min 0 W/m 37,7 km/h (5 Bft) 97,87 %
10.11.2015 06:22 13,3 C 13,3 C 12,2 C 86 % 0 lf 1021,4 hPa 0,0 l/m 0 min 0 min 0 W/m 31,4 km/h (5 Bft) 95,74 %
10.11.2015 06:24 13,3 C 13,3 C 12,2 C 86 % 0 lf 1021,3 hPa 0,0 l/m 0 min 0 min 0 W/m 35,6 km/h (5 Bft) 95,74 %
10.11.2015 06:26 13,3 C 13,3 C 12,2 C 86 % 0 lf 1021,3 hPa 0,0 l/m 0 min 0 min 0 W/m 35,6 km/h (5 Bft) 95,74 %
10.11.2015 06:28 13,3 C 13,3 C 12,2 C 86 % 0 lf 1021,4 hPa 0,0 l/m 0 min 0 min 0 W/m 35,6 km/h (5 Bft) 93,48 %
10.11.2015 06:30 13,3 C 13,3 C 12,2 C 86 % 0 lf 1021,4 hPa 0,0 l/m 0 min 0 min 0 W/m 35,6 km/h (5 Bft) 97,87 %
10.11.2015 06:32 13,3 C 13,3 C 12,2 C 85 % 0 lf 1021,5 hPa 0,0 l/m 0 min 0 min 0 W/m 39,7 km/h (6 Bft) 97,92 %
10.11.2015 06:34 13,3 C 13,3 C 12,2 C 85 % 0 lf 1021,5 hPa 0,0 l/m 0 min 0 min 0 W/m 27,2 km/h (4 Bft) 95,74 %
10.11.2015 06:36 13,3 C 13,3 C 12,2 C 86 % 0 lf 1021,6 hPa 0,0 l/m 0 min 0 min 0 W/m 33,5 km/h (5 Bft) 95,74 %
10.11.2015 06:38 13,3 C 13,3 C 12,2 C 85 % 0 lf 1021,7 hPa 0,0 l/m 0 min 0 min 0 W/m 29,3 km/h (5 Bft) 97,83 %
10.11.2015 06:40 13,3 C 13,3 C 11,7 C 86 % 0 lf 1021,7 hPa 0,0 l/m 0 min 0 min 0 W/m 39,7 km/h (6 Bft) 97,87 %
10.11.2015 06:42 13,3 C 13,3 C 11,7 C 85 % 0 lf 1021,7 hPa 0,0 l/m 0 min 0 min 0 W/m 33,5 km/h (5 Bft) 97,87 %
10.11.2015 06:44 13,3 C 13,3 C 11,7 C 85 % 0 lf 1021,7 hPa 0,0 l/m 0 min 0 min 0 W/m 31,4 km/h (5 Bft) 95,74 %
10.11.2015 06:46 13,3 C 12,8 C 11,7 C 85 % 0 lf 1021,7 hPa 0,0 l/m 0 min 0 min 0 W/m 29,3 km/h (5 Bft) 100,00 %
10.11.2015 06:48 13,2 C 12,8 C 11,7 C 85 % 0 lf 1021,7 hPa 0,0 l/m 0 min 0 min 0 W/m 27,2 km/h (4 Bft) 97,87 %
10.11.2015 06:50 13,2 C 12,8 C 11,7 C 85 % 0 lf 1021,7 hPa 0,0 l/m 0 min 0 min 0 W/m 25,1 km/h (4 Bft) 93,48 %
10.11.2015 06:52 13,2 C 12,8 C 11,7 C 85 % 0 lf 1021,7 hPa 0,0 l/m 0 min 0 min 0 W/m 35,6 km/h (5 Bft) 97,87 %
10.11.2015 06:54 13,1 C 12,8 C 11,7 C 86 % 0 lf 1021,8 hPa 0,0 l/m 0 min 0 min 0 W/m 20,9 km/h (4 Bft) 97,87 %
10.11.2015 06:56 13,1 C 12,8 C 11,7 C 85 % 0 lf 1021,8 hPa 0,0 l/m 0 min 0 min 0 W/m 31,4 km/h (5 Bft) 97,87 %
10.11.2015 06:58 13,1 C 12,8 C 11,7 C 86 % 0 lf 1021,9 hPa 0,0 l/m 0 min 0 min 0 W/m 33,5 km/h (5 Bft) 97,87 %
10.11.2015 07:00 13,1 C 12,8 C 11,7 C 86 % 0 lf 1022,1 hPa 0,0 l/m 0 min 0 min 0 W/m 31,4 km/h (5 Bft) 95,74 %
10.11.2015 07:02 13,1 C 12,8 C 11,7 C 86 % 0 lf 1021,9 hPa 0,0 l/m 0 min 0 min 0 W/m 39,7 km/h (6 Bft) 91,49 %
10.11.2015 07:04 13,1 C 13,3 C 11,7 C 86 % 0 lf 1022,0 hPa 0,0 l/m 0 min 0 min 0 W/m 33,5 km/h (5 Bft) 93,62 %
10.11.2015 07:06 13,1 C 13,3 C 11,7 C 86 % 0 lf 1022,0 hPa 0,0 l/m 0 min 0 min 0 W/m 25,1 km/h (4 Bft) 97,87 %
10.11.2015 07:08 13,1 C 13,3 C 11,7 C 86 % 0 lf 1022,0 hPa 0,0 l/m 0 min 0 min 0 W/m 29,3 km/h (5 Bft) 93,62 %
10.11.2015 07:10 13,1 C 13,3 C 11,7 C 86 % 0 lf 1021,9 hPa 0,0 l/m 0 min 0 min 0 W/m 27,2 km/h (4 Bft) 95,74 %
10.11.2015 07:12 13,1 C 13,3 C 11,7 C 86 % 0 lf 1021,9 hPa 0,0 l/m 0 min 0 min 0 W/m 29,3 km/h (5 Bft) 95,74 %
10.11.2015 07:14 13,1 C 13,3 C 11,7 C 86 % 0 lf 1021,9 hPa 0,0 l/m 0 min 0 min 0 W/m 25,1 km/h (4 Bft) 95,65 %
10.11.2015 07:16 13,1 C 13,3 C 11,7 C 86 % 0 lf 1021,9 hPa 0,0 l/m 0 min 0 min 0 W/m 27,2 km/h (4 Bft) 91,49 %
10.11.2015 07:18 13,1 C 13,3 C 11,7 C 87 % 0 lf 1022,0 hPa 0,0 l/m 0 min 0 min 0 W/m 25,1 km/h (4 Bft) 93,62 %
10.11.2015 07:20 13,0 C 13,3 C 11,7 C 87 % 0 lf 1022,1 hPa 0,0 l/m 0 min 0 min 0 W/m 31,4 km/h (5 Bft) 93,62 %
10.11.2015 07:22 13,1 C 13,3 C 11,7 C 87 % 0 lf 1022,0 hPa 0,0 l/m 0 min 0 min 0 W/m 35,6 km/h (5 Bft) 97,87 %
10.11.2015 07:24 13,1 C 13,3 C 11,7 C 87 % 0 lf 1022,0 hPa 0,0 l/m 0 min 0 min 0 W/m 25,1 km/h (4 Bft) 93,62 %
10.11.2015 07:26 13,1 C 13,3 C 11,7 C 87 % 0 lf 1022,0 hPa 0,0 l/m 0 min 0 min 0 W/m 23,0 km/h (4 Bft) 97,83 %
10.11.2015 07:28 13,1 C 13,3 C 11,7 C 87 % 0 lf 1022,1 hPa 0,0 l/m 0 min 0 min 0 W/m 20,9 km/h (4 Bft) 97,87 %
10.11.2015 07:30 13,1 C 13,3 C 11,7 C 87 % 0 lf 1022,1 hPa 0,0 l/m 0 min 0 min 0 W/m 29,3 km/h (5 Bft) 95,74 %
10.11.2015 07:32 13,1 C 13,3 C 11,7 C 87 % 0 lf 1022,1 hPa 0,0 l/m 0 min 0 min 0 W/m 31,4 km/h (5 Bft) 97,92 %
10.11.2015 07:34 13,1 C 13,3 C 11,7 C 87 % 0 lf 1022,1 hPa 0,0 l/m 0 min 0 min 0 W/m 23,0 km/h (4 Bft) 93,62 %
10.11.2015 07:36 13,1 C 13,3 C 11,7 C 87 % 0 lf 1022,2 hPa 0,0 l/m 0 min 0 min 0 W/m 27,2 km/h (4 Bft) 93,48 %
10.11.2015 07:38 13,1 C 13,3 C 11,7 C 87 % 0 lf 1022,1 hPa 0,0 l/m 0 min 0 min 0 W/m 25,1 km/h (4 Bft) 95,74 %
10.11.2015 07:40 13,1 C 13,3 C 11,7 C 87 % 0 lf 1022,1 hPa 0,0 l/m 0 min 0 min 0 W/m 31,4 km/h (5 Bft) 97,87 %
10.11.2015 07:42 13,1 C 13,3 C 11,7 C 87 % 0 lf 1022,1 hPa 0,0 l/m 0 min 0 min 0 W/m 35,6 km/h (5 Bft) 97,87 %
10.11.2015 07:44 13,1 C 13,3 C 11,7 C 87 % 0 lf 1022,1 hPa 0,0 l/m 0 min 0 min 0 W/m 25,1 km/h (4 Bft) 97,87 %
10.11.2015 07:46 13,1 C 13,3 C 11,7 C 87 % 0 lf 1022,1 hPa 0,0 l/m 0 min 0 min 0 W/m 37,7 km/h (5 Bft) 95,74 %
10.11.2015 07:48 13,1 C 13,3 C 11,7 C 87 % 0 lf 1022,1 hPa 0,0 l/m 0 min 0 min 0 W/m 33,5 km/h (5 Bft) 97,83 %
10.11.2015 07:50 13,1 C 13,3 C 11,7 C 87 % 0 lf 1022,1 hPa 0,0 l/m 0 min 0 min 0 W/m 29,3 km/h (5 Bft) 93,62 %
10.11.2015 07:52 13,1 C 13,3 C 11,7 C 88 % 0 lf 1022,2 hPa 0,0 l/m 0 min 0 min 0 W/m 37,7 km/h (5 Bft) 95,74 %
10.11.2015 07:54 13,1 C 13,3 C 11,7 C 88 % 0 lf 1022,3 hPa 0,0 l/m 0 min 0 min 0 W/m 39,7 km/h (6 Bft) 97,87 %
10.11.2015 07:56 13,1 C 13,3 C 11,7 C 88 % 0 lf 1022,3 hPa 0,0 l/m 0 min 0 min 0 W/m 27,2 km/h (4 Bft) 97,87 %
10.11.2015 07:58 13,1 C 13,3 C 11,7 C 88 % 0 lf 1022,3 hPa 0,0 l/m 0 min 0 min 0 W/m 39,7 km/h (6 Bft) 97,87 %
10.11.2015 08:00 13,1 C 13,3 C 11,7 C 88 % 0 lf 1022,4 hPa 0,0 l/m 0 min 0 min 1 W/m 23,0 km/h (4 Bft) 93,48 %
10.11.2015 08:02 13,1 C 13,3 C 11,7 C 88 % 0 lf 1022,6 hPa 0,0 l/m 0 min 0 min 5 W/m 20,9 km/h (4 Bft) 95,74 %
10.11.2015 08:04 13,1 C 13,3 C 11,7 C 88 % 0 lf 1022,6 hPa 0,0 l/m 0 min 0 min 7 W/m 41,8 km/h (6 Bft) 97,87 %
10.11.2015 08:06 13,1 C 13,3 C 11,7 C 88 % 0 lf 1022,7 hPa 0,0 l/m 0 min 0 min 8 W/m 31,4 km/h (5 Bft) 100,00 %
10.11.2015 08:08 13,1 C 13,3 C 11,7 C 88 % 0 lf 1022,7 hPa 0,0 l/m 0 min 0 min 6 W/m 31,4 km/h (5 Bft) 93,62 %
10.11.2015 08:10 13,1 C 13,3 C 11,7 C 88 % 0 lf 1022,7 hPa 0,0 l/m 0 min 0 min 6 W/m 25,1 km/h (4 Bft) 97,87 %
10.11.2015 08:12 13,1 C 13,3 C 11,7 C 88 % 0 lf 1022,7 hPa 0,0 l/m 0 min 0 min 7 W/m 31,4 km/h (5 Bft) 97,83 %
10.11.2015 08:14 13,1 C 13,3 C 11,7 C 88 % 0 lf 1022,7 hPa 0,0 l/m 0 min 0 min 8 W/m 27,2 km/h (4 Bft) 97,87 %
10.11.2015 08:16 13,1 C 13,3 C 11,7 C 88 % 0 lf 1022,7 hPa 0,0 l/m 0 min 0 min 13 W/m 23,0 km/h (4 Bft) 97,87 %
10.11.2015 08:18 13,1 C 13,3 C 11,7 C 88 % 0 lf 1022,8 hPa 0,0 l/m 0 min 0 min 10 W/m 35,6 km/h (5 Bft) 97,87 %
10.11.2015 08:20 13,1 C 13,3 C 11,7 C 88 % 0 lf 1022,7 hPa 0,0 l/m 0 min 0 min 14 W/m 29,3 km/h (5 Bft) 97,87 %
10.11.2015 08:22 13,1 C 13,3 C 11,7 C 88 % 0 lf 1022,7 hPa 0,0 l/m 0 min 0 min 13 W/m 35,6 km/h (5 Bft) 95,74 %
10.11.2015 08:24 13,2 C 13,3 C 11,7 C 88 % 0 lf 1022,8 hPa 0,0 l/m 0 min 0 min 13 W/m 23,0 km/h (4 Bft) 91,30 %
10.11.2015 08:26 13,1 C 13,3 C 11,7 C 88 % 0 lf 1023,0 hPa 0,0 l/m 0 min 0 min 16 W/m 25,1 km/h (4 Bft) 95,74 %
10.11.2015 08:28 13,1 C 13,3 C 12,2 C 88 % 0 lf 1022,8 hPa 0,0 l/m 0 min 0 min 19 W/m 31,4 km/h (5 Bft) 97,87 %
10.11.2015 08:30 13,1 C 13,3 C 12,2 C 88 % 0 lf 1022,9 hPa 0,0 l/m 0 min 0 min 17 W/m 27,2 km/h (4 Bft) 97,87 %
10.11.2015 08:32 13,2 C 13,3 C 12,2 C 88 % 0 lf 1023,0 hPa 0,0 l/m 0 min 0 min 16 W/m 23,0 km/h (4 Bft) 93,62 %
10.11.2015 08:34 13,2 C 13,3 C 12,2 C 89 % 0 lf 1023,0 hPa 0,0 l/m 0 min 0 min 17 W/m 20,9 km/h (4 Bft) 93,62 %
10.11.2015 08:36 13,1 C 13,3 C 11,7 C 89 % 0 lf 1023,0 hPa 0,0 l/m 0 min 0 min 10 W/m 29,3 km/h (5 Bft) 95,74 %
10.11.2015 08:38 13,1 C 13,3 C 12,2 C 89 % 0 lf 1023,1 hPa 0,0 l/m 0 min 0 min 8 W/m 23,0 km/h (4 Bft) 97,87 %
10.11.2015 08:40 13,2 C 13,3 C 12,2 C 89 % 0 lf 1022,9 hPa 0,0 l/m 0 min 0 min 11 W/m 23,0 km/h (4 Bft) 95,74 %
10.11.2015 08:42 13,1 C 13,3 C 11,7 C 89 % 0 lf 1022,9 hPa 0,0 l/m 0 min 0 min 12 W/m 35,6 km/h (5 Bft) 93,62 %
10.11.2015 08:44 13,2 C 13,3 C 12,2 C 89 % 0 lf 1022,8 hPa 0,0 l/m 0 min 0 min 12 W/m 29,3 km/h (5 Bft) 97,83 %
10.11.2015 08:46 13,1 C 13,3 C 12,2 C 89 % 0 lf 1022,8 hPa 0,0 l/m 0 min 0 min 13 W/m 37,7 km/h (5 Bft) 91,49 %
10.11.2015 08:48 13,2 C 13,3 C 12,2 C 89 % 0 lf 1022,8 hPa 0,0 l/m 0 min 0 min 24 W/m 29,3 km/h (5 Bft) 95,74 %
10.11.2015 08:50 13,1 C 13,3 C 12,2 C 89 % 0 lf 1022,8 hPa 0,0 l/m 0 min 0 min 31 W/m 27,2 km/h (4 Bft) 91,49 %
10.11.2015 08:52 13,2 C 13,3 C 12,2 C 89 % 0 lf 1022,8 hPa 0,0 l/m 0 min 0 min 32 W/m 29,3 km/h (5 Bft) 91,49 %
10.11.2015 08:54 13,2 C 13,3 C 12,2 C 89 % 0 lf 1022,9 hPa 0,0 l/m 0 min 0 min 34 W/m 16,7 km/h (3 Bft) 91,49 %
10.11.2015 08:56 13,2 C 13,3 C 12,2 C 89 % 0 lf 1023,0 hPa 0,0 l/m 0 min 0 min 28 W/m 27,2 km/h (4 Bft) 93,48 %
10.11.2015 08:58 13,2 C 13,3 C 12,2 C 89 % 0 lf 1023,0 hPa 0,0 l/m 0 min 0 min 24 W/m 33,5 km/h (5 Bft) 91,49 %
10.11.2015 09:00 13,2 C 13,3 C 12,2 C 89 % 0 lf 1022,9 hPa 0,0 l/m 0 min 0 min 20 W/m 39,7 km/h (6 Bft) 91,49 %
10.11.2015 09:02 13,2 C 13,3 C 12,2 C 89 % 0 lf 1023,1 hPa 0,0 l/m 0 min 0 min 20 W/m 27,2 km/h (4 Bft) 93,62 %
10.11.2015 09:04 13,2 C 13,3 C 12,2 C 89 % 0 lf 1022,9 hPa 0,0 l/m 0 min 0 min 31 W/m 35,6 km/h (5 Bft) 93,62 %
10.11.2015 09:06 13,2 C 13,3 C 12,2 C 89 % 0 lf 1022,9 hPa 0,0 l/m 0 min 0 min 31 W/m 25,1 km/h (4 Bft) 95,74 %
10.11.2015 09:08 13,2 C 13,3 C 12,2 C 89 % 0 lf 1022,9 hPa 0,0 l/m 0 min 0 min 33 W/m 29,3 km/h (5 Bft) 93,48 %
10.11.2015 09:10 13,2 C 13,3 C 12,2 C 89 % 0 lf 1022,9 hPa 0,0 l/m 0 min 0 min 31 W/m 31,4 km/h (5 Bft) 91,49 %
10.11.2015 09:12 13,2 C 13,3 C 12,2 C 89 % 0 lf 1022,8 hPa 0,0 l/m 0 min 0 min 42 W/m 33,5 km/h (5 Bft) 95,74 %
10.11.2015 09:14 13,2 C 13,3 C 12,2 C 89 % 0 lf 1022,8 hPa 0,0 l/m 0 min 0 min 42 W/m 29,3 km/h (5 Bft) 93,62 %
10.11.2015 09:16 13,2 C 13,3 C 12,2 C 89 % 0 lf 1022,8 hPa 0,0 l/m 0 min 0 min 48 W/m 31,4 km/h (5 Bft) 97,87 %
10.11.2015 09:18 13,2 C 13,9 C 12,2 C 89 % 0 lf 1022,8 hPa 0,0 l/m 0 min 0 min 53 W/m 23,0 km/h (4 Bft) 95,74 %
10.11.2015 09:20 13,2 C 13,3 C 12,2 C 89 % 0 lf 1022,8 hPa 0,0 l/m 0 min 0 min 36 W/m 31,4 km/h (5 Bft) 97,83 %
10.11.2015 09:22 13,2 C 13,3 C 12,2 C 89 % 0 lf 1022,8 hPa 0,0 l/m 0 min 0 min 41 W/m 29,3 km/h (5 Bft) 95,74 %
10.11.2015 09:24 13,2 C 13,9 C 12,2 C 89 % 0 lf 1022,8 hPa 0,0 l/m 0 min 0 min 58 W/m 27,2 km/h (4 Bft) 97,87 %
10.11.2015 09:26 13,2 C 13,9 C 12,2 C 89 % 0 lf 1022,8 hPa 0,0 l/m 0 min 0 min 79 W/m 41,8 km/h (6 Bft) 95,74 %
10.11.2015 09:28 13,2 C 13,9 C 12,2 C 89 % 0 lf 1022,7 hPa 0,0 l/m 0 min 0 min 44 W/m 29,3 km/h (5 Bft) 97,87 %
10.11.2015 09:30 13,2 C 13,9 C 12,2 C 89 % 0 lf 1022,9 hPa 0,0 l/m 0 min 0 min 39 W/m 31,4 km/h (5 Bft) 95,74 %
10.11.2015 09:32 13,2 C 13,3 C 12,2 C 89 % 0 lf 1022,8 hPa 0,0 l/m 0 min 0 min 47 W/m 31,4 km/h (5 Bft) 97,14 %
10.11.2015 09:34 13,2 C 13,3 C 12,2 C 89 % 0 lf 1022,8 hPa 0,0 l/m 0 min 0 min 35 W/m 37,7 km/h (5 Bft) 97,92 %
10.11.2015 09:36 13,2 C 13,3 C 12,2 C 89 % 0 lf 1022,9 hPa 0,0 l/m 0 min 0 min 36 W/m 35,6 km/h (5 Bft) 95,83 %
10.11.2015 09:38 13,2 C 13,9 C 12,2 C 89 % 0 lf 1022,9 hPa 0,0 l/m 0 min 0 min 62 W/m 39,7 km/h (6 Bft) 97,87 %
10.11.2015 09:40 13,2 C 13,9 C 12,2 C 89 % 0 lf 1023,0 hPa 0,0 l/m 0 min 0 min 78 W/m 31,4 km/h (5 Bft) 97,87 %
10.11.2015 09:42 13,2 C 13,9 C 12,2 C 89 % 0 lf 1023,0 hPa 0,0 l/m 0 min 0 min 57 W/m 35,6 km/h (5 Bft) 100,00 %
10.11.2015 09:44 13,3 C 13,9 C 12,2 C 89 % 0 lf 1023,1 hPa 0,0 l/m 0 min 0 min 58 W/m 23,0 km/h (4 Bft) 100,00 %
10.11.2015 09:46 13,3 C 13,9 C 12,2 C 89 % 0 lf 1023,1 hPa 0,0 l/m 0 min 0 min 41 W/m 33,5 km/h (5 Bft) 97,83 %
10.11.2015 09:48 13,3 C 13,9 C 12,2 C 89 % 0 lf 1023,1 hPa 0,0 l/m 0 min 0 min 32 W/m 23,0 km/h (4 Bft) 97,87 %
10.11.2015 09:50 13,3 C 13,9 C 12,2 C 89 % 0 lf 1023,2 hPa 0,0 l/m 0 min 0 min 41 W/m 25,1 km/h (4 Bft) 97,87 %
10.11.2015 09:52 13,3 C 13,3 C 12,2 C 89 % 0 lf 1023,2 hPa 0,0 l/m 0 min 0 min 41 W/m 35,6 km/h (5 Bft) 97,87 %
10.11.2015 09:54 13,2 C 13,3 C 12,2 C 89 % 0 lf 1023,1 hPa 0,0 l/m 0 min 0 min 44 W/m 37,7 km/h (5 Bft) 97,87 %
10.11.2015 09:56 13,2 C 13,3 C 12,2 C 89 % 0 lf 1023,3 hPa 0,0 l/m 0 min 0 min 37 W/m 35,6 km/h (5 Bft) 100,00 %
10.11.2015 09:58 13,2 C 13,3 C 12,2 C 89 % 0 lf 1023,3 hPa 0,0 l/m 0 min 0 min 38 W/m 33,5 km/h (5 Bft) 97,83 %
10.11.2015 10:00 13,2 C 13,3 C 12,2 C 89 % 0 lf 1023,4 hPa 0,0 l/m 0 min 0 min 42 W/m 23,0 km/h (4 Bft) 100,00 %
10.11.2015 10:02 13,2 C 13,9 C 12,2 C 89 % 0 lf 1023,4 hPa 0,0 l/m 0 min 0 min 39 W/m 14,6 km/h (3 Bft) 100,00 %
10.11.2015 10:04 13,2 C 13,3 C 12,2 C 89 % 0 lf 1023,4 hPa 0,0 l/m 0 min 0 min 39 W/m 29,3 km/h (5 Bft) 95,74 %
10.11.2015 10:06 13,2 C 13,3 C 12,2 C 89 % 0 lf 1023,4 hPa 0,0 l/m 0 min 0 min 39 W/m 39,7 km/h (6 Bft) 97,87 %
10.11.2015 10:08 13,2 C 13,3 C 12,2 C 89 % 0 lf 1023,4 hPa 0,0 l/m 0 min 0 min 40 W/m 20,9 km/h (4 Bft) 95,65 %
10.11.2015 10:10 13,2 C 13,3 C 12,2 C 89 % 0 lf 1023,4 hPa 0,0 l/m 0 min 0 min 36 W/m 35,6 km/h (5 Bft) 100,00 %
10.11.2015 10:12 13,2 C 13,3 C 12,2 C 89 % 0 lf 1023,4 hPa 0,0 l/m 0 min 0 min 38 W/m 33,5 km/h (5 Bft) 100,00 %
10.11.2015 10:14 13,2 C 13,3 C 12,2 C 89 % 0 lf 1023,4 hPa 0,0 l/m 0 min 0 min 38 W/m 39,7 km/h (6 Bft) 97,87 %
10.11.2015 10:16 13,2 C 13,3 C 12,2 C 89 % 0 lf 1023,4 hPa 0,0 l/m 0 min 0 min 36 W/m 37,7 km/h (5 Bft) 100,00 %
10.11.2015 10:18 13,2 C 13,3 C 12,2 C 89 % 0 lf 1023,3 hPa 0,0 l/m 0 min 0 min 40 W/m 35,6 km/h (5 Bft) 100,00 %
10.11.2015 10:20 13,2 C 13,3 C 12,2 C 89 % 0 lf 1023,4 hPa 0,0 l/m 0 min 0 min 42 W/m 25,1 km/h (4 Bft) 97,83 %
10.11.2015 10:22 13,2 C 13,3 C 12,2 C 89 % 0 lf 1023,3 hPa 0,0 l/m 0 min 0 min 41 W/m 33,5 km/h (5 Bft) 93,62 %
10.11.2015 10:24 13,2 C 13,3 C 12,2 C 89 % 0 lf 1023,3 hPa 0,0 l/m 0 min 0 min 43 W/m 27,2 km/h (4 Bft) 97,87 %
10.11.2015 10:26 13,2 C 13,3 C 12,2 C 89 % 0 lf 1023,4 hPa 0,0 l/m 0 min 0 min 42 W/m 31,4 km/h (5 Bft) 100,00 %
10.11.2015 10:28 13,2 C 13,3 C 12,2 C 89 % 0 lf 1023,3 hPa 0,0 l/m 0 min 0 min 34 W/m 29,3 km/h (5 Bft) 97,87 %
10.11.2015 10:30 13,2 C 13,3 C 12,2 C 89 % 0 lf 1023,4 hPa 0,0 l/m 0 min 0 min 20 W/m 20,9 km/h (4 Bft) 100,00 %
10.11.2015 10:32 13,2 C 13,3 C 12,2 C 89 % 0 lf 1023,4 hPa 0,0 l/m 0 min 0 min 16 W/m 33,5 km/h (5 Bft) 97,83 %
10.11.2015 10:34 13,2 C 13,3 C 12,2 C 89 % 0 lf 1023,4 hPa 0,0 l/m 0 min 0 min 14 W/m 27,2 km/h (4 Bft) 97,87 %
10.11.2015 10:36 13,2 C 13,3 C 12,2 C 89 % 0 lf 1023,4 hPa 0,0 l/m 0 min 0 min 16 W/m 33,5 km/h (5 Bft) 97,87 %
10.11.2015 10:38 13,2 C 13,3 C 12,2 C 89 % 0 lf 1023,4 hPa 0,0 l/m 0 min 0 min 17 W/m 23,0 km/h (4 Bft) 100,00 %
10.11.2015 10:40 13,2 C 13,3 C 12,2 C 89 % 0 lf 1023,3 hPa 0,0 l/m 0 min 0 min 19 W/m 27,2 km/h (4 Bft) 95,74 %
10.11.2015 10:42 13,2 C 13,3 C 12,2 C 90 % 0 lf 1023,3 hPa 0,0 l/m 0 min 0 min 19 W/m 25,1 km/h (4 Bft) 93,62 %
10.11.2015 10:44 13,2 C 13,3 C 12,2 C 90 % 0 lf 1023,4 hPa 0,0 l/m 0 min 0 min 20 W/m 20,9 km/h (4 Bft) 95,65 %
10.11.2015 10:46 13,2 C 13,3 C 12,2 C 90 % 0 lf 1023,4 hPa 0,0 l/m 0 min 0 min 28 W/m 27,2 km/h (4 Bft) 95,74 %
10.11.2015 10:48 13,2 C 13,3 C 12,2 C 90 % 0 lf 1023,4 hPa 0,0 l/m 0 min 0 min 40 W/m 27,2 km/h (4 Bft) 95,74 %
10.11.2015 10:50 13,2 C 13,9 C 12,2 C 90 % 0 lf 1023,4 hPa 0,0 l/m 0 min 0 min 51 W/m 29,3 km/h (5 Bft) 93,62 %
10.11.2015 10:52 13,2 C 13,9 C 12,2 C 90 % 0 lf 1023,4 hPa 0,0 l/m 0 min 0 min 51 W/m 29,3 km/h (5 Bft) 93,62 %
10.11.2015 10:54 13,2 C 13,9 C 12,2 C 90 % 0 lf 1023,4 hPa 0,0 l/m 0 min 0 min 49 W/m 31,4 km/h (5 Bft) 93,62 %
10.11.2015 10:56 13,2 C 13,9 C 12,2 C 90 % 0 lf 1023,4 hPa 0,0 l/m 0 min 0 min 50 W/m 29,3 km/h (5 Bft) 95,65 %
10.11.2015 10:58 13,3 C 13,9 C 12,2 C 90 % 0 lf 1023,3 hPa 0,0 l/m 0 min 0 min 53 W/m 23,0 km/h (4 Bft) 89,36 %
10.11.2015 11:00 13,3 C 13,9 C 12,2 C 90 % 0 lf 1023,4 hPa 0,0 l/m 0 min 0 min 50 W/m 33,5 km/h (5 Bft) 95,74 %
10.11.2015 11:02 13,3 C 13,9 C 12,2 C 90 % 0 lf 1023,4 hPa 0,0 l/m 0 min 0 min 49 W/m 37,7 km/h (5 Bft) 91,49 %
10.11.2015 11:04 13,3 C 13,9 C 12,2 C 90 % 0 lf 1023,4 hPa 0,0 l/m 0 min 0 min 49 W/m 31,4 km/h (5 Bft) 95,74 %
10.11.2015 11:06 13,4 C 13,9 C 12,2 C 90 % 0 lf 1023,4 hPa 0,0 l/m 0 min 0 min 46 W/m 29,3 km/h (5 Bft) 95,74 %
10.11.2015 11:08 13,4 C 13,9 C 12,2 C 90 % 0 lf 1023,4 hPa 0,0 l/m 0 min 0 min 46 W/m 23,0 km/h (4 Bft) 95,65 %
10.11.2015 11:10 13,4 C 13,9 C 12,2 C 90 % 0 lf 1023,4 hPa 0,0 l/m 0 min 0 min 48 W/m 25,1 km/h (4 Bft) 93,62 %
10.11.2015 11:12 13,4 C 13,9 C 12,2 C 90 % 0 lf 1023,4 hPa 0,0 l/m 0 min 0 min 44 W/m 25,1 km/h (4 Bft) 93,62 %
10.11.2015 11:14 13,4 C 13,9 C 12,2 C 90 % 0 lf 1023,4 hPa 0,0 l/m 0 min 0 min 43 W/m 41,8 km/h (6 Bft) 91,49 %
10.11.2015 11:16 13,4 C 13,9 C 12,2 C 90 % 0 lf 1023,4 hPa 0,0 l/m 0 min 0 min 45 W/m 27,2 km/h (4 Bft) 93,62 %
10.11.2015 11:18 13,5 C 13,9 C 12,2 C 90 % 0 lf 1023,5 hPa 0,0 l/m 0 min 0 min 42 W/m 18,8 km/h (3 Bft) 95,74 %
10.11.2015 11:20 13,5 C 13,9 C 12,2 C 90 % 0 lf 1023,5 hPa 0,0 l/m 0 min 0 min 45 W/m 25,1 km/h (4 Bft) 95,65 %
10.11.2015 11:22 13,5 C 13,9 C 12,8 C 90 % 0 lf 1023,4 hPa 0,0 l/m 0 min 0 min 47 W/m 20,9 km/h (4 Bft) 95,74 %
10.11.2015 11:24 13,5 C 13,9 C 12,2 C 90 % 0 lf 1023,4 hPa 0,0 l/m 0 min 0 min 44 W/m 27,2 km/h (4 Bft) 87,23 %
10.11.2015 11:26 13,5 C 13,9 C 12,8 C 90 % 0 lf 1023,4 hPa 0,0 l/m 0 min 0 min 46 W/m 29,3 km/h (5 Bft) 95,74 %
10.11.2015 11:28 13,5 C 13,9 C 12,2 C 90 % 0 lf 1023,5 hPa 0,0 l/m 0 min 0 min 45 W/m 48,1 km/h (6 Bft) 91,49 %
10.11.2015 11:30 13,5 C 13,9 C 12,2 C 90 % 0 lf 1023,4 hPa 0,0 l/m 0 min 0 min 45 W/m 35,6 km/h (5 Bft) 91,49 %
10.11.2015 11:32 13,5 C 13,9 C 12,2 C 90 % 0 lf 1023,5 hPa 0,0 l/m 0 min 0 min 49 W/m 37,7 km/h (5 Bft) 91,30 %
10.11.2015 11:34 13,5 C 13,9 C 12,2 C 90 % 0 lf 1023,5 hPa 0,0 l/m 0 min 0 min 46 W/m 31,4 km/h (5 Bft) 95,74 %
10.11.2015 11:36 13,5 C 13,9 C 12,2 C 90 % 0 lf 1023,4 hPa 0,0 l/m 0 min 0 min 47 W/m 35,6 km/h (5 Bft) 91,49 %
10.11.2015 11:38 13,5 C 13,9 C 12,2 C 90 % 0 lf 1023,4 hPa 0,0 l/m 0 min 0 min 52 W/m 31,4 km/h (5 Bft) 95,74 %
10.11.2015 11:40 13,5 C 13,9 C 12,2 C 90 % 0 lf 1023,4 hPa 0,0 l/m 0 min 0 min 48 W/m 39,7 km/h (6 Bft) 95,74 %
10.11.2015 11:42 13,6 C 13,9 C 12,2 C 90 % 0 lf 1023,4 hPa 0,0 l/m 0 min 0 min 45 W/m 35,6 km/h (5 Bft) 91,30 %
10.11.2015 11:44 13,6 C 13,9 C 12,2 C 90 % 0 lf 1023,4 hPa 0,0 l/m 0 min 0 min 49 W/m 37,7 km/h (5 Bft) 91,49 %
10.11.2015 11:46 13,5 C 13,9 C 12,2 C 90 % 0 lf 1023,4 hPa 0,0 l/m 0 min 0 min 57 W/m 37,7 km/h (5 Bft) 93,62 %
10.11.2015 11:48 13,6 C 13,9 C 12,8 C 90 % 0 lf 1023,4 hPa 0,0 l/m 0 min 0 min 57 W/m 33,5 km/h (5 Bft) 89,36 %
10.11.2015 11:50 13,6 C 13,9 C 12,8 C 90 % 0 lf 1023,4 hPa 0,0 l/m 0 min 0 min 62 W/m 27,2 km/h (4 Bft) 93,62 %
10.11.2015 11:52 13,6 C 13,9 C 12,8 C 90 % 0 lf 1023,4 hPa 0,0 l/m 0 min 0 min 63 W/m 39,7 km/h (6 Bft) 93,62 %
10.11.2015 11:54 13,6 C 13,9 C 12,8 C 90 % 0 lf 1023,4 hPa 0,0 l/m 0 min 0 min 53 W/m 29,3 km/h (5 Bft) 95,65 %
10.11.2015 11:56 13,6 C 13,9 C 12,8 C 90 % 0 lf 1023,5 hPa 0,0 l/m 0 min 0 min 51 W/m 31,4 km/h (5 Bft) 97,87 %
10.11.2015 11:58 13,6 C 13,9 C 12,2 C 90 % 0 lf 1023,5 hPa 0,0 l/m 0 min 0 min 50 W/m 29,3 km/h (5 Bft) 95,74 %
10.11.2015 12:00 13,6 C 13,9 C 12,2 C 90 % 0 lf 1023,4 hPa 0,0 l/m 0 min 0 min 56 W/m 33,5 km/h (5 Bft) 95,74 %
10.11.2015 12:02 13,6 C 13,9 C 12,2 C 90 % 0 lf 1023,4 hPa 0,0 l/m 0 min 0 min 55 W/m 39,7 km/h (6 Bft) 91,49 %
10.11.2015 12:04 13,5 C 13,9 C 12,8 C 90 % 0 lf 1023,4 hPa 0,0 l/m 0 min 0 min 61 W/m 23,0 km/h (4 Bft) 97,87 %
10.11.2015 12:06 13,6 C 13,9 C 12,8 C 90 % 0 lf 1023,4 hPa 0,0 l/m 0 min 0 min 59 W/m 23,0 km/h (4 Bft) 95,65 %
10.11.2015 12:08 13,5 C 13,9 C 12,8 C 90 % 0 lf 1023,5 hPa 0,0 l/m 0 min 0 min 61 W/m 29,3 km/h (5 Bft) 93,62 %
10.11.2015 12:10 13,5 C 13,9 C 12,2 C 90 % 0 lf 1023,4 hPa 0,0 l/m 0 min 0 min 60 W/m 31,4 km/h (5 Bft) 97,87 %
10.11.2015 12:12 13,5 C 13,9 C 12,2 C 90 % 0 lf 1023,4 hPa 0,0 l/m 0 min 0 min 57 W/m 35,6 km/h (5 Bft) 95,74 %
10.11.2015 12:14 13,5 C 13,9 C 12,2 C 90 % 0 lf 1023,4 hPa 0,0 l/m 0 min 0 min 64 W/m 35,6 km/h (5 Bft) 95,74 %
10.11.2015 12:16 13,5 C 13,9 C 12,2 C 90 % 0 lf 1023,3 hPa 0,0 l/m 0 min 0 min 67 W/m 25,1 km/h (4 Bft) 97,87 %
10.11.2015 12:18 13,5 C 13,9 C 12,8 C 90 % 0 lf 1023,4 hPa 0,0 l/m 0 min 0 min 59 W/m 25,1 km/h (4 Bft) 95,65 %
10.11.2015 12:20 13,5 C 13,9 C 12,2 C 90 % 0 lf 1023,3 hPa 0,0 l/m 0 min 0 min 50 W/m 39,7 km/h (6 Bft) 95,74 %
10.11.2015 12:22 13,5 C 13,9 C 12,2 C 90 % 0 lf 1023,3 hPa 0,0 l/m 0 min 0 min 63 W/m 25,1 km/h (4 Bft) 70,21 %
10.11.2015 12:24 13,5 C 13,9 C 12,2 C 90 % 0 lf 1023,3 hPa 0,0 l/m 0 min 0 min 65 W/m 27,2 km/h (4 Bft) 68,00 %
10.11.2015 12:26 13,5 C 13,9 C 12,8 C 90 % 0 lf 1023,4 hPa 0,0 l/m 0 min 0 min 67 W/m 20,9 km/h (4 Bft) 91,49 %
10.11.2015 12:28 13,5 C 13,9 C 12,8 C 90 % 0 lf 1023,4 hPa 0,0 l/m 0 min 0 min 67 W/m 39,7 km/h (6 Bft) 97,87 %
10.11.2015 12:30 13,5 C 13,9 C 12,8 C 90 % 0 lf 1023,3 hPa 0,0 l/m 0 min 0 min 73 W/m 39,7 km/h (6 Bft) 97,83 %
10.11.2015 12:32 13,5 C 13,9 C 12,2 C 90 % 0 lf 1023,2 hPa 0,0 l/m 0 min 0 min 60 W/m 29,3 km/h (5 Bft) 97,87 %
10.11.2015 12:34 13,5 C 13,9 C 12,8 C 90 % 0 lf 1023,2 hPa 0,0 l/m 0 min 0 min 63 W/m 27,2 km/h (4 Bft) 93,62 %
10.11.2015 12:36 13,5 C 13,9 C 12,8 C 90 % 0 lf 1023,2 hPa 0,0 l/m 0 min 0 min 67 W/m 14,6 km/h (3 Bft) 93,62 %
10.11.2015 12:38 13,5 C 13,9 C 12,8 C 90 % 0 lf 1023,2 hPa 0,0 l/m 0 min 0 min 66 W/m 20,9 km/h (4 Bft) 100,00 %
10.11.2015 12:40 13,5 C 13,9 C 12,8 C 90 % 0 lf 1023,2 hPa 0,0 l/m 0 min 0 min 68 W/m 33,5 km/h (5 Bft) 97,83 %
10.11.2015 12:42 13,5 C 13,9 C 12,8 C 90 % 0 lf 1023,1 hPa 0,0 l/m 0 min 0 min 68 W/m 20,9 km/h (4 Bft) 97,87 %
10.11.2015 12:44 13,5 C 13,9 C 12,8 C 90 % 0 lf 1023,1 hPa 0,0 l/m 0 min 0 min 65 W/m 23,0 km/h (4 Bft) 97,87 %
10.11.2015 12:46 13,5 C 13,9 C 12,8 C 90 % 0 lf 1023,1 hPa 0,0 l/m 0 min 0 min 61 W/m 16,7 km/h (3 Bft) 97,87 %
10.11.2015 12:48 13,5 C 13,9 C 12,8 C 90 % 0 lf 1023,1 hPa 0,0 l/m 0 min 0 min 59 W/m 18,8 km/h (3 Bft) 97,87 %
10.11.2015 12:50 13,5 C 13,9 C 12,8 C 90 % 0 lf 1023,0 hPa 0,0 l/m 0 min 0 min 72 W/m 27,2 km/h (4 Bft) 95,74 %
10.11.2015 12:52 13,5 C 13,9 C 12,8 C 90 % 0 lf 1023,1 hPa 0,0 l/m 0 min 0 min 69 W/m 33,5 km/h (5 Bft) 97,83 %
10.11.2015 12:54 13,5 C 13,9 C 12,8 C 90 % 0 lf 1023,0 hPa 0,0 l/m 0 min 0 min 60 W/m 25,1 km/h (4 Bft) 97,87 %
10.11.2015 12:56 13,5 C 13,9 C 12,8 C 90 % 0 lf 1023,0 hPa 0,0 l/m 0 min 0 min 62 W/m 29,3 km/h (5 Bft) 95,74 %
10.11.2015 12:58 13,5 C 13,9 C 12,8 C 90 % 0 lf 1023,0 hPa 0,0 l/m 0 min 0 min 59 W/m 27,2 km/h (4 Bft) 95,74 %
10.11.2015 13:00 13,5 C 13,9 C 12,8 C 90 % 0 lf 1022,9 hPa 0,0 l/m 0 min 0 min 63 W/m 20,9 km/h (4 Bft) 97,87 %
10.11.2015 13:02 13,5 C 13,9 C 12,8 C 90 % 0 lf 1023,1 hPa 0,0 l/m 0 min 0 min 67 W/m 27,2 km/h (4 Bft) 97,87 %
10.11.2015 13:04 13,5 C 13,9 C 12,8 C 90 % 0 lf 1023,1 hPa 0,0 l/m 0 min 0 min 73 W/m 31,4 km/h (5 Bft) 95,65 %
10.11.2015 13:06 13,5 C 13,9 C 12,8 C 90 % 0 lf 1023,0 hPa 0,0 l/m 0 min 0 min 77 W/m 29,3 km/h (5 Bft) 95,74 %
10.11.2015 13:08 13,6 C 13,9 C 12,8 C 90 % 0 lf 1023,0 hPa 0,0 l/m 0 min 0 min 68 W/m 33,5 km/h (5 Bft) 100,00 %
10.11.2015 13:10 13,6 C 13,9 C 12,8 C 90 % 0 lf 1023,0 hPa 0,0 l/m 0 min 0 min 73 W/m 39,7 km/h (6 Bft) 97,87 %
10.11.2015 13:12 13,6 C 13,9 C 12,8 C 90 % 0 lf 1023,0 hPa 0,0 l/m 0 min 0 min 83 W/m 35,6 km/h (5 Bft) 97,87 %
10.11.2015 13:14 13,6 C 13,9 C 12,8 C 90 % 0 lf 1023,0 hPa 0,0 l/m 0 min 0 min 77 W/m 27,2 km/h (4 Bft) 97,87 %
10.11.2015 13:16 13,6 C 13,9 C 12,8 C 90 % 0 lf 1023,0 hPa 0,0 l/m 0 min 0 min 58 W/m 29,3 km/h (5 Bft) 100,00 %
10.11.2015 13:18 13,6 C 13,9 C 12,8 C 90 % 0 lf 1023,1 hPa 0,0 l/m 0 min 0 min 48 W/m 29,3 km/h (5 Bft) 97,87 %
10.11.2015 13:20 13,6 C 13,9 C 12,8 C 90 % 0 lf 1023,1 hPa 0,0 l/m 0 min 0 min 71 W/m 16,7 km/h (3 Bft) 95,74 %
10.11.2015 13:22 13,6 C 14,4 C 12,8 C 90 % 0 lf 1023,0 hPa 0,0 l/m 0 min 0 min 76 W/m 16,7 km/h (3 Bft) 100,00 %
10.11.2015 13:24 13,6 C 14,4 C 12,8 C 90 % 0 lf 1023,0 hPa 0,0 l/m 0 min 0 min 69 W/m 25,1 km/h (4 Bft) 97,87 %
10.11.2015 13:26 13,6 C 14,4 C 12,8 C 90 % 0 lf 1023,0 hPa 0,0 l/m 0 min 0 min 64 W/m 23,0 km/h (4 Bft) 100,00 %
10.11.2015 13:28 13,7 C 14,4 C 12,8 C 90 % 0 lf 1023,0 hPa 0,0 l/m 0 min 0 min 71 W/m 33,5 km/h (5 Bft) 100,00 %
10.11.2015 13:30 13,7 C 14,4 C 12,8 C 90 % 0 lf 1023,1 hPa 0,0 l/m 0 min 0 min 74 W/m 27,2 km/h (4 Bft) 100,00 %
10.11.2015 13:32 13,7 C 14,4 C 12,8 C 90 % 0 lf 1023,0 hPa 0,0 l/m 0 min 0 min 70 W/m 31,4 km/h (5 Bft) 97,87 %
10.11.2015 13:34 13,7 C 13,9 C 12,8 C 90 % 0 lf 1023,0 hPa 0,0 l/m 0 min 0 min 63 W/m 35,6 km/h (5 Bft) 93,62 %
10.11.2015 13:36 13,7 C 13,9 C 12,8 C 90 % 0 lf 1023,0 hPa 0,0 l/m 0 min 0 min 55 W/m 37,7 km/h (5 Bft) 100,00 %
10.11.2015 13:38 13,7 C 13,9 C 12,8 C 90 % 0 lf 1022,9 hPa 0,0 l/m 0 min 0 min 54 W/m 27,2 km/h (4 Bft) 100,00 %
10.11.2015 13:40 13,7 C 13,9 C 12,8 C 90 % 0 lf 1022,9 hPa 0,0 l/m 0 min 0 min 52 W/m 29,3 km/h (5 Bft) 100,00 %
10.11.2015 13:42 13,7 C 13,9 C 12,8 C 90 % 0 lf 1023,0 hPa 0,0 l/m 0 min 0 min 48 W/m 25,1 km/h (4 Bft) 97,87 %
10.11.2015 13:44 13,7 C 13,9 C 12,8 C 90 % 0 lf 1022,8 hPa 0,0 l/m 0 min 0 min 46 W/m 27,2 km/h (4 Bft) 100,00 %
10.11.2015 13:46 13,7 C 13,9 C 12,8 C 90 % 0 lf 1022,9 hPa 0,0 l/m 0 min 0 min 45 W/m 18,8 km/h (3 Bft) 100,00 %
10.11.2015 13:48 13,7 C 13,9 C 12,8 C 90 % 0 lf 1022,9 hPa 0,0 l/m 0 min 0 min 38 W/m 27,2 km/h (4 Bft) 97,87 %
10.11.2015 13:50 13,7 C 13,9 C 12,8 C 90 % 0 lf 1022,9 hPa 0,0 l/m 0 min 0 min 32 W/m 25,1 km/h (4 Bft) 97,87 %
10.11.2015 13:52 13,7 C 13,9 C 12,8 C 90 % 0 lf 1023,0 hPa 0,0 l/m 0 min 0 min 39 W/m 23,0 km/h (4 Bft) 100,00 %
10.11.2015 13:54 13,7 C 13,9 C 12,8 C 90 % 0 lf 1022,9 hPa 0,0 l/m 0 min 0 min 49 W/m 29,3 km/h (5 Bft) 100,00 %
10.11.2015 13:56 13,7 C 13,9 C 12,8 C 90 % 0 lf 1022,9 hPa 0,0 l/m 0 min 0 min 54 W/m 20,9 km/h (4 Bft) 97,87 %
10.11.2015 13:58 13,7 C 14,4 C 12,8 C 90 % 0 lf 1022,9 hPa 0,0 l/m 0 min 0 min 63 W/m 23,0 km/h (4 Bft) 97,87 %
10.11.2015 14:00 13,7 C 14,4 C 12,8 C 90 % 0 lf 1022,9 hPa 0,0 l/m 0 min 0 min 82 W/m 27,2 km/h (4 Bft) 97,87 %
10.11.2015 14:02 13,7 C 14,4 C 12,8 C 90 % 0 lf 1022,8 hPa 0,0 l/m 0 min 0 min 75 W/m 29,3 km/h (5 Bft) 93,62 %
10.11.2015 14:04 13,8 C 14,4 C 12,8 C 90 % 0 lf 1022,9 hPa 0,0 l/m 0 min 0 min 86 W/m 33,5 km/h (5 Bft) 97,83 %
10.11.2015 14:06 13,8 C 14,4 C 12,8 C 90 % 0 lf 1022,8 hPa 0,0 l/m 0 min 0 min 75 W/m 33,5 km/h (5 Bft) 91,49 %
10.11.2015 14:08 13,8 C 14,4 C 12,8 C 90 % 1 lf 1022,9 hPa 0,0 l/m 0 min 0 min 68 W/m 27,2 km/h (4 Bft) 100,00 %
10.11.2015 14:10 13,8 C 14,4 C 12,8 C 90 % 1 lf 1022,9 hPa 0,0 l/m 0 min 0 min 59 W/m 29,3 km/h (5 Bft) 97,87 %
10.11.2015 14:12 13,8 C 13,9 C 12,8 C 90 % 0 lf 1022,9 hPa 0,0 l/m 0 min 0 min 49 W/m 31,4 km/h (5 Bft) 95,74 %
10.11.2015 14:14 13,8 C 14,4 C 12,8 C 90 % 0 lf 1022,8 hPa 0,0 l/m 0 min 0 min 52 W/m 31,4 km/h (5 Bft) 95,65 %
10.11.2015 14:16 13,8 C 13,9 C 12,8 C 90 % 0 lf 1022,8 hPa 0,0 l/m 0 min 0 min 62 W/m 29,3 km/h (5 Bft) 97,87 %
10.11.2015 14:18 13,8 C 14,4 C 12,8 C 90 % 0 lf 1022,8 hPa 0,0 l/m 0 min 0 min 57 W/m 23,0 km/h (4 Bft) 93,62 %
10.11.2015 14:20 13,8 C 14,4 C 12,8 C 90 % 0 lf 1022,9 hPa 0,0 l/m 0 min 0 min 59 W/m 35,6 km/h (5 Bft) 97,87 %
10.11.2015 14:22 13,8 C 14,4 C 12,8 C 90 % 0 lf 1022,8 hPa 0,0 l/m 0 min 0 min 59 W/m 29,3 km/h (5 Bft) 93,62 %
10.11.2015 14:24 13,8 C 14,4 C 12,8 C 90 % 0 lf 1022,8 hPa 0,0 l/m 0 min 0 min 59 W/m 35,6 km/h (5 Bft) 93,62 %
10.11.2015 14:26 13,8 C 14,4 C 12,8 C 90 % 0 lf 1022,9 hPa 0,0 l/m 0 min 0 min 67 W/m 25,1 km/h (4 Bft) 95,65 %
10.11.2015 14:28 13,8 C 14,4 C 12,8 C 90 % 0 lf 1022,9 hPa 0,0 l/m 0 min 0 min 69 W/m 35,6 km/h (5 Bft) 95,74 %
10.11.2015 14:30 13,8 C 14,4 C 12,8 C 90 % 0 lf 1022,8 hPa 0,0 l/m 0 min 0 min 74 W/m 27,2 km/h (4 Bft) 93,62 %
10.11.2015 14:32 13,8 C 14,4 C 12,8 C 90 % 0 lf 1022,8 hPa 0,0 l/m 0 min 0 min 73 W/m 14,6 km/h (3 Bft) 96,23 %
10.11.2015 14:34 13,8 C 14,4 C 12,8 C 90 % 0 lf 1022,8 hPa 0,0 l/m 0 min 0 min 82 W/m 27,2 km/h (4 Bft) 91,49 %
10.11.2015 14:36 13,9 C 14,4 C 12,8 C 90 % 0 lf 1022,8 hPa 0,0 l/m 0 min 0 min 75 W/m 23,0 km/h (4 Bft) 97,87 %
10.11.2015 14:38 13,9 C 14,4 C 12,8 C 90 % 0 lf 1022,7 hPa 0,0 l/m 0 min 0 min 70 W/m 35,6 km/h (5 Bft) 95,65 %
10.11.2015 14:40 13,9 C 14,4 C 12,8 C 90 % 0 lf 1022,7 hPa 0,0 l/m 0 min 0 min 67 W/m 20,9 km/h (4 Bft) 91,49 %
10.11.2015 14:42 13,9 C 14,4 C 12,8 C 90 % 0 lf 1022,8 hPa 0,0 l/m 0 min 0 min 64 W/m 20,9 km/h (4 Bft) 93,62 %
10.11.2015 14:44 13,9 C 14,4 C 12,8 C 90 % 0 lf 1022,6 hPa 0,0 l/m 0 min 0 min 63 W/m 27,2 km/h (4 Bft) 95,74 %
10.11.2015 14:46 13,9 C 14,4 C 12,8 C 90 % 0 lf 1022,6 hPa 0,0 l/m 0 min 0 min 60 W/m 27,2 km/h (4 Bft) 91,49 %
10.11.2015 14:48 13,9 C 14,4 C 12,8 C 90 % 0 lf 1022,5 hPa 0,0 l/m 0 min 0 min 69 W/m 23,0 km/h (4 Bft) 91,49 %
10.11.2015 14:50 13,9 C 14,4 C 13,3 C 90 % 0 lf 1022,5 hPa 0,0 l/m 0 min 0 min 76 W/m 23,0 km/h (4 Bft) 91,30 %
10.11.2015 14:52 13,9 C 14,4 C 13,3 C 90 % 0 lf 1022,5 hPa 0,0 l/m 0 min 0 min 57 W/m 27,2 km/h (4 Bft) 93,62 %
10.11.2015 14:54 14,0 C 14,4 C 12,8 C 90 % 0 lf 1022,5 hPa 0,0 l/m 0 min 0 min 46 W/m 33,5 km/h (5 Bft) 93,62 %
10.11.2015 14:56 14,0 C 14,4 C 12,8 C 90 % 0 lf 1022,6 hPa 0,0 l/m 0 min 0 min 48 W/m 35,6 km/h (5 Bft) 87,23 %
10.11.2015 14:58 14,0 C 14,4 C 12,8 C 90 % 0 lf 1022,5 hPa 0,0 l/m 0 min 0 min 56 W/m 29,3 km/h (5 Bft) 91,49 %
10.11.2015 15:00 14,0 C 14,4 C 12,8 C 90 % 0 lf 1022,5 hPa 0,0 l/m 0 min 0 min 52 W/m 23,0 km/h (4 Bft) 93,62 %
10.11.2015 15:02 14,0 C 14,4 C 12,8 C 90 % 0 lf 1022,4 hPa 0,0 l/m 0 min 0 min 65 W/m 23,0 km/h (4 Bft) 91,30 %
10.11.2015 15:04 14,1 C 14,4 C 13,3 C 90 % 0 lf 1022,5 hPa 0,0 l/m 0 min 0 min 69 W/m 18,8 km/h (3 Bft) 93,62 %
10.11.2015 15:06 14,1 C 14,4 C 13,3 C 90 % 0 lf 1022,5 hPa 0,0 l/m 0 min 0 min 74 W/m 33,5 km/h (5 Bft) 93,62 %
10.11.2015 15:08 14,1 C 14,4 C 13,3 C 90 % 0 lf 1022,5 hPa 0,0 l/m 0 min 0 min 68 W/m 27,2 km/h (4 Bft) 93,62 %
10.11.2015 15:10 14,1 C 14,4 C 13,3 C 90 % 0 lf 1022,5 hPa 0,0 l/m 0 min 0 min 69 W/m 25,1 km/h (4 Bft) 91,49 %
10.11.2015 15:12 14,2 C 14,4 C 13,3 C 90 % 0 lf 1022,5 hPa 0,0 l/m 0 min 0 min 76 W/m 23,0 km/h (4 Bft) 95,74 %
10.11.2015 15:14 14,2 C 14,4 C 13,3 C 90 % 0 lf 1022,5 hPa 0,0 l/m 0 min 0 min 76 W/m 31,4 km/h (5 Bft) 91,30 %
10.11.2015 15:16 14,2 C 14,4 C 13,3 C 90 % 0 lf 1022,5 hPa 0,0 l/m 0 min 0 min 78 W/m 27,2 km/h (4 Bft) 91,49 %
10.11.2015 15:18 14,2 C 14,4 C 13,3 C 90 % 0 lf 1022,6 hPa 0,0 l/m 0 min 0 min 75 W/m 31,4 km/h (5 Bft) 91,49 %
10.11.2015 15:20 14,2 C 14,4 C 13,3 C 90 % 0 lf 1022,5 hPa 0,0 l/m 0 min 0 min 70 W/m 29,3 km/h (5 Bft) 95,74 %
10.11.2015 15:22 14,2 C 15,0 C 13,3 C 90 % 0 lf 1022,5 hPa 0,0 l/m 0 min 0 min 69 W/m 31,4 km/h (5 Bft) 93,62 %
10.11.2015 15:24 14,2 C 14,4 C 13,3 C 90 % 0 lf 1022,5 hPa 0,0 l/m 0 min 0 min 66 W/m 31,4 km/h (5 Bft) 95,74 %
10.11.2015 15:26 14,2 C 14,4 C 13,3 C 90 % 0 lf 1022,5 hPa 0,0 l/m 0 min 0 min 59 W/m 29,3 km/h (5 Bft) 95,65 %
10.11.2015 15:28 14,2 C 14,4 C 13,3 C 90 % 0 lf 1022,5 hPa 0,0 l/m 0 min 0 min 58 W/m 33,5 km/h (5 Bft) 97,87 %
10.11.2015 15:30 14,2 C 14,4 C 13,3 C 90 % 0 lf 1022,5 hPa 0,0 l/m 0 min 0 min 44 W/m 25,1 km/h (4 Bft) 91,49 %
10.11.2015 15:32 14,2 C 14,4 C 13,3 C 90 % 0 lf 1022,5 hPa 0,0 l/m 0 min 0 min 47 W/m 27,2 km/h (4 Bft) 95,83 %
10.11.2015 15:34 14,2 C 14,4 C 13,3 C 90 % 0 lf 1022,5 hPa 0,0 l/m 0 min 0 min 52 W/m 27,2 km/h (4 Bft) 97,87 %
10.11.2015 15:36 14,2 C 14,4 C 13,3 C 90 % 0 lf 1022,5 hPa 0,0 l/m 0 min 0 min 58 W/m 33,5 km/h (5 Bft) 97,87 %
10.11.2015 15:38 14,2 C 14,4 C 13,3 C 90 % 0 lf 1022,5 hPa 0,0 l/m 0 min 0 min 58 W/m 35,6 km/h (5 Bft) 97,83 %
10.11.2015 15:40 14,2 C 14,4 C 13,3 C 90 % 0 lf 1022,4 hPa 0,0 l/m 0 min 0 min 61 W/m 23,0 km/h (4 Bft) 95,74 %
10.11.2015 15:42 14,2 C 14,4 C 13,3 C 90 % 0 lf 1022,4 hPa 0,0 l/m 0 min 0 min 53 W/m 27,2 km/h (4 Bft) 95,74 %
10.11.2015 15:44 14,2 C 14,4 C 13,3 C 90 % 0 lf 1022,3 hPa 0,0 l/m 0 min 0 min 48 W/m 29,3 km/h (5 Bft) 100,00 %
10.11.2015 15:46 14,2 C 14,4 C 13,3 C 90 % 0 lf 1022,4 hPa 0,0 l/m 0 min 0 min 48 W/m 23,0 km/h (4 Bft) 100,00 %
10.11.2015 15:48 14,2 C 14,4 C 13,3 C 90 % 0 lf 1022,2 hPa 0,0 l/m 0 min 0 min 54 W/m 23,0 km/h (4 Bft) 97,83 %
10.11.2015 15:50 14,2 C 15,0 C 13,3 C 90 % 0 lf 1022,2 hPa 0,0 l/m 0 min 0 min 59 W/m 29,3 km/h (5 Bft) 97,87 %
10.11.2015 15:52 14,2 C 15,0 C 13,3 C 90 % 0 lf 1022,1 hPa 0,0 l/m 2 min 0 min 63 W/m 27,2 km/h (4 Bft) 100,00 %
10.11.2015 15:54 14,3 C 15,0 C 13,3 C 90 % 0 lf 1022,1 hPa 0,0 l/m 2 min 0 min 67 W/m 29,3 km/h (5 Bft) 100,00 %
10.11.2015 15:56 14,3 C 15,0 C 13,3 C 90 % 0 lf 1022,0 hPa 0,0 l/m 2 min 0 min 66 W/m 23,0 km/h (4 Bft) 97,87 %
10.11.2015 15:58 14,3 C 15,0 C 13,3 C 90 % 0 lf 1022,0 hPa 0,0 l/m 2 min 0 min 62 W/m 20,9 km/h (4 Bft) 100,00 %
10.11.2015 16:00 14,3 C 15,0 C 13,3 C 90 % 0 lf 1022,1 hPa 0,0 l/m 2 min 0 min 63 W/m 25,1 km/h (4 Bft) 100,00 %
10.11.2015 16:02 14,3 C 15,0 C 13,3 C 90 % 0 lf 1022,2 hPa 0,0 l/m 2 min 0 min 60 W/m 18,8 km/h (3 Bft) 100,00 %
10.11.2015 16:04 14,3 C 15,0 C 13,3 C 90 % 0 lf 1022,1 hPa 0,0 l/m 2 min 0 min 58 W/m 14,6 km/h (3 Bft) 100,00 %
10.11.2015 16:06 14,3 C 15,0 C 13,3 C 90 % 0 lf 1022,1 hPa 0,0 l/m 2 min 0 min 58 W/m 18,8 km/h (3 Bft) 100,00 %
10.11.2015 16:08 14,3 C 15,0 C 13,3 C 90 % 0 lf 1022,2 hPa 0,0 l/m 2 min 0 min 54 W/m 27,2 km/h (4 Bft) 95,74 %
10.11.2015 16:10 14,4 C 15,0 C 13,3 C 90 % 0 lf 1022,1 hPa 0,0 l/m 2 min 0 min 51 W/m 20,9 km/h (4 Bft) 100,00 %
10.11.2015 16:12 14,4 C 15,0 C 13,3 C 90 % 0 lf 1022,2 hPa 0,0 l/m 2 min 0 min 46 W/m 25,1 km/h (4 Bft) 100,00 %
10.11.2015 16:14 14,4 C 15,0 C 13,3 C 90 % 0 lf 1022,2 hPa 0,0 l/m 2 min 0 min 44 W/m 23,0 km/h (4 Bft) 100,00 %
10.11.2015 16:16 14,4 C 15,0 C 13,3 C 90 % 0 lf 1022,2 hPa 0,0 l/m 0 min 0 min 36 W/m 27,2 km/h (4 Bft) 100,00 %
10.11.2015 16:18 14,4 C 14,4 C 13,3 C 90 % 0 lf 1022,3 hPa 0,0 l/m 0 min 0 min 31 W/m 31,4 km/h (5 Bft) 97,87 %
10.11.2015 16:20 14,4 C 14,4 C 13,3 C 90 % 0 lf 1022,3 hPa 0,0 l/m 0 min 0 min 28 W/m 31,4 km/h (5 Bft) 95,74 %
10.11.2015 16:22 14,4 C 14,4 C 13,3 C 90 % 0 lf 1022,2 hPa 0,0 l/m 0 min 0 min 26 W/m 20,9 km/h (4 Bft) 100,00 %
10.11.2015 16:24 14,4 C 14,4 C 13,3 C 90 % 0 lf 1022,2 hPa 0,0 l/m 0 min 0 min 24 W/m 27,2 km/h (4 Bft) 100,00 %
10.11.2015 16:26 14,4 C 14,4 C 13,3 C 90 % 0 lf 1022,3 hPa 0,0 l/m 0 min 0 min 20 W/m 31,4 km/h (5 Bft) 97,87 %
10.11.2015 16:28 14,4 C 14,4 C 13,3 C 90 % 0 lf 1022,2 hPa 0,0 l/m 0 min 0 min 18 W/m 25,1 km/h (4 Bft) 97,87 %
10.11.2015 16:30 14,4 C 14,4 C 13,3 C 90 % 0 lf 1022,2 hPa 0,0 l/m 0 min 0 min 16 W/m 20,9 km/h (4 Bft) 97,87 %
10.11.2015 16:32 14,4 C 14,4 C 13,3 C 90 % 0 lf 1022,2 hPa 0,0 l/m 0 min 0 min 18 W/m 16,7 km/h (3 Bft) 100,00 %
10.11.2015 16:34 14,4 C 14,4 C 13,3 C 90 % 0 lf 1022,3 hPa 0,0 l/m 0 min 0 min 16 W/m 27,2 km/h (4 Bft) 95,65 %
10.11.2015 16:36 14,4 C 14,4 C 13,3 C 90 % 0 lf 1022,2 hPa 0,0 l/m 0 min 0 min 15 W/m 23,0 km/h (4 Bft) 95,74 %
10.11.2015 16:38 14,4 C 14,4 C 13,3 C 90 % 0 lf 1022,1 hPa 0,0 l/m 0 min 0 min 13 W/m 18,8 km/h (3 Bft) 97,87 %
10.11.2015 16:40 14,4 C 14,4 C 13,3 C 90 % 0 lf 1022,2 hPa 0,0 l/m 0 min 0 min 11 W/m 20,9 km/h (4 Bft) 95,74 %
10.11.2015 16:42 14,4 C 14,4 C 13,3 C 90 % 0 lf 1022,2 hPa 0,0 l/m 0 min 0 min 11 W/m 16,7 km/h (3 Bft) 93,62 %
10.11.2015 16:44 14,4 C 14,4 C 13,3 C 90 % 0 lf 1022,3 hPa 0,0 l/m 0 min 0 min 9 W/m 27,2 km/h (4 Bft) 93,62 %
10.11.2015 16:46 14,4 C 14,4 C 13,3 C 91 % 0 lf 1022,4 hPa 0,0 l/m 0 min 0 min 6 W/m 20,9 km/h (4 Bft) 95,65 %
10.11.2015 16:48 14,4 C 14,4 C 13,3 C 91 % 0 lf 1022,4 hPa 0,0 l/m 0 min 0 min 6 W/m 23,0 km/h (4 Bft) 93,62 %
10.11.2015 16:50 14,4 C 14,4 C 13,3 C 91 % 0 lf 1022,4 hPa 0,0 l/m 0 min 0 min 5 W/m 18,8 km/h (3 Bft) 93,62 %
10.11.2015 16:52 14,4 C 14,4 C 13,3 C 91 % 0 lf 1022,4 hPa 0,0 l/m 0 min 0 min 5 W/m 20,9 km/h (4 Bft) 93,62 %
10.11.2015 16:54 14,4 C 14,4 C 13,3 C 91 % 0 lf 1022,4 hPa 0,0 l/m 0 min 0 min 1 W/m 18,8 km/h (3 Bft) 91,49 %
10.11.2015 16:56 14,4 C 14,4 C 13,3 C 91 % 0 lf 1022,4 hPa 0,0 l/m 0 min 0 min 0 W/m 18,8 km/h (3 Bft) 93,62 %
10.11.2015 16:58 14,4 C 14,4 C 12,8 C 91 % 0 lf 1022,4 hPa 0,0 l/m 0 min 0 min 0 W/m 20,9 km/h (4 Bft) 95,65 %
10.11.2015 17:00 14,4 C 14,4 C 12,8 C 91 % 0 lf 1022,5 hPa 0,0 l/m 0 min 0 min 0 W/m 27,2 km/h (4 Bft) 91,49 %
10.11.2015 17:02 14,4 C 14,4 C 12,8 C 91 % 0 lf 1022,4 hPa 0,0 l/m 0 min 0 min 0 W/m 16,7 km/h (3 Bft) 95,74 %
10.11.2015 17:04 14,4 C 14,4 C 12,8 C 91 % 0 lf 1022,5 hPa 0,0 l/m 0 min 0 min 0 W/m 20,9 km/h (4 Bft) 93,62 %
10.11.2015 17:06 14,4 C 14,4 C 12,8 C 91 % 0 lf 1022,5 hPa 0,0 l/m 0 min 0 min 0 W/m 25,1 km/h (4 Bft) 95,74 %
10.11.2015 17:08 14,4 C 14,4 C 12,8 C 91 % 0 lf 1022,4 hPa 0,0 l/m 0 min 0 min 0 W/m 23,0 km/h (4 Bft) 93,62 %
10.11.2015 17:10 14,4 C 14,4 C 12,8 C 91 % 0 lf 1022,4 hPa 0,0 l/m 0 min 0 min 0 W/m 18,8 km/h (3 Bft) 95,65 %
10.11.2015 17:12 14,4 C 14,4 C 12,8 C 91 % 0 lf 1022,5 hPa 0,0 l/m 0 min 0 min 0 W/m 25,1 km/h (4 Bft) 95,74 %
10.11.2015 17:14 14,4 C 14,4 C 12,8 C 91 % 0 lf 1022,5 hPa 0,0 l/m 0 min 0 min 0 W/m 25,1 km/h (4 Bft) 95,74 %
10.11.2015 17:16 14,3 C 14,4 C 12,8 C 91 % 0 lf 1022,5 hPa 0,0 l/m 0 min 0 min 0 W/m 25,1 km/h (4 Bft) 97,87 %
10.11.2015 17:18 14,3 C 14,4 C 12,8 C 91 % 0 lf 1022,5 hPa 0,0 l/m 0 min 0 min 0 W/m 20,9 km/h (4 Bft) 97,87 %
10.11.2015 17:20 14,3 C 14,4 C 12,8 C 91 % 0 lf 1022,5 hPa 0,0 l/m 0 min 0 min 0 W/m 23,0 km/h (4 Bft) 95,74 %
10.11.2015 17:22 14,3 C 14,4 C 12,8 C 91 % 0 lf 1022,5 hPa 0,0 l/m 0 min 0 min 0 W/m 23,0 km/h (4 Bft) 97,83 %
10.11.2015 17:24 14,3 C 14,4 C 12,8 C 91 % 0 lf 1022,5 hPa 0,0 l/m 0 min 0 min 0 W/m 18,8 km/h (3 Bft) 97,87 %
10.11.2015 17:26 14,3 C 14,4 C 12,8 C 91 % 0 lf 1022,7 hPa 0,0 l/m 0 min 0 min 0 W/m 23,0 km/h (4 Bft) 97,87 %
10.11.2015 17:28 14,3 C 14,4 C 12,8 C 91 % 0 lf 1022,5 hPa 0,0 l/m 0 min 0 min 0 W/m 16,7 km/h (3 Bft) 95,74 %
10.11.2015 17:30 14,3 C 14,4 C 12,8 C 91 % 0 lf 1022,7 hPa 0,0 l/m 0 min 0 min 0 W/m 23,0 km/h (4 Bft) 97,87 %
10.11.2015 17:32 14,3 C 14,4 C 12,8 C 91 % 0 lf 1022,5 hPa 0,0 l/m 0 min 0 min 0 W/m 25,1 km/h (4 Bft) 94,44 %
10.11.2015 17:34 14,3 C 14,4 C 12,8 C 91 % 0 lf 1022,4 hPa 0,0 l/m 0 min 0 min 0 W/m 29,3 km/h (5 Bft) 100,00 %
10.11.2015 17:36 14,2 C 14,4 C 12,8 C 91 % 0 lf 1022,5 hPa 0,0 l/m 0 min 0 min 0 W/m 23,0 km/h (4 Bft) 93,48 %
10.11.2015 17:38 14,2 C 14,4 C 12,8 C 91 % 0 lf 1022,5 hPa 0,0 l/m 0 min 0 min 0 W/m 23,0 km/h (4 Bft) 100,00 %
10.11.2015 17:40 14,2 C 14,4 C 12,8 C 91 % 0 lf 1022,5 hPa 0,0 l/m 0 min 0 min 0 W/m 18,8 km/h (3 Bft) 97,87 %
10.11.2015 17:42 14,2 C 14,4 C 12,8 C 91 % 0 lf 1022,6 hPa 0,0 l/m 0 min 0 min 0 W/m 20,9 km/h (4 Bft) 100,00 %
10.11.2015 17:44 14,2 C 14,4 C 12,8 C 91 % 0 lf 1022,6 hPa 0,0 l/m 0 min 0 min 0 W/m 25,1 km/h (4 Bft) 100,00 %
10.11.2015 17:46 14,2 C 14,4 C 12,8 C 91 % 0 lf 1022,6 hPa 0,0 l/m 0 min 0 min 0 W/m 27,2 km/h (4 Bft) 95,74 %
10.11.2015 17:48 14,2 C 14,4 C 12,8 C 91 % 0 lf 1022,5 hPa 0,0 l/m 0 min 0 min 0 W/m 20,9 km/h (4 Bft) 95,65 %
10.11.2015 17:50 14,2 C 14,4 C 12,8 C 91 % 0 lf 1022,5 hPa 0,0 l/m 0 min 0 min 0 W/m 18,8 km/h (3 Bft) 97,87 %
10.11.2015 17:52 14,2 C 14,4 C 12,8 C 91 % 0 lf 1022,5 hPa 0,0 l/m 0 min 0 min 0 W/m 25,1 km/h (4 Bft) 97,87 %
10.11.2015 17:54 14,2 C 14,4 C 12,8 C 91 % 0 lf 1022,5 hPa 0,0 l/m 0 min 0 min 0 W/m 20,9 km/h (4 Bft) 97,96 %
10.11.2015 17:56 14,2 C 14,4 C 12,8 C 91 % 0 lf 1022,7 hPa 0,0 l/m 0 min 0 min 0 W/m 25,1 km/h (4 Bft) 97,83 %
10.11.2015 17:58 14,2 C 14,4 C 12,8 C 91 % 0 lf 1022,7 hPa 0,0 l/m 0 min 0 min 0 W/m 25,1 km/h (4 Bft) 97,87 %
10.11.2015 18:00 14,2 C 14,4 C 12,8 C 91 % 0 lf 1022,7 hPa 0,0 l/m 0 min 0 min 0 W/m 27,2 km/h (4 Bft) 93,62 %
10.11.2015 18:02 14,2 C 14,4 C 12,8 C 91 % 0 lf 1022,6 hPa 0,0 l/m 0 min 0 min 0 W/m 27,2 km/h (4 Bft) 95,74 %
10.11.2015 18:04 14,2 C 14,4 C 12,8 C 91 % 0 lf 1022,6 hPa 0,0 l/m 0 min 0 min 0 W/m 20,9 km/h (4 Bft) 95,74 %
10.11.2015 18:06 14,2 C 14,4 C 12,8 C 91 % 0 lf 1022,7 hPa 0,0 l/m 0 min 0 min 0 W/m 12,6 km/h (3 Bft) 91,49 %
10.11.2015 18:08 14,2 C 14,4 C 12,8 C 91 % 0 lf 1022,7 hPa 0,0 l/m 0 min 0 min 0 W/m 29,3 km/h (5 Bft) 95,65 %
10.11.2015 18:10 14,2 C 14,4 C 12,8 C 91 % 0 lf 1022,7 hPa 0,0 l/m 0 min 0 min 0 W/m 27,2 km/h (4 Bft) 95,74 %
10.11.2015 18:12 14,2 C 14,4 C 12,8 C 91 % 0 lf 1022,7 hPa 0,0 l/m 0 min 0 min 0 W/m 25,1 km/h (4 Bft) 95,74 %
10.11.2015 18:14 14,2 C 13,9 C 12,8 C 91 % 0 lf 1022,7 hPa 0,0 l/m 0 min 0 min 0 W/m 23,0 km/h (4 Bft) 93,62 %
10.11.2015 18:16 14,2 C 13,9 C 12,8 C 91 % 0 lf 1022,7 hPa 0,0 l/m 0 min 0 min 0 W/m 31,4 km/h (5 Bft) 95,74 %
10.11.2015 18:18 14,2 C 13,9 C 12,8 C 91 % 0 lf 1022,7 hPa 0,0 l/m 0 min 0 min 0 W/m 31,4 km/h (5 Bft) 93,62 %
10.11.2015 18:20 14,2 C 13,9 C 12,8 C 91 % 0 lf 1022,7 hPa 0,0 l/m 0 min 0 min 0 W/m 25,1 km/h (4 Bft) 95,65 %
10.11.2015 18:22 14,2 C 13,9 C 12,8 C 91 % 0 lf 1022,7 hPa 0,0 l/m 0 min 0 min 0 W/m 27,2 km/h (4 Bft) 93,62 %
10.11.2015 18:24 14,2 C 13,9 C 12,8 C 91 % 0 lf 1022,6 hPa 0,0 l/m 0 min 0 min 0 W/m 16,7 km/h (3 Bft) 95,74 %
10.11.2015 18:26 14,2 C 13,9 C 12,8 C 91 % 0 lf 1022,7 hPa 0,0 l/m 0 min 0 min 0 W/m 27,2 km/h (4 Bft) 95,74 %
10.11.2015 18:28 14,1 C 13,9 C 12,8 C 91 % 0 lf 1022,8 hPa 0,0 l/m 0 min 0 min 0 W/m 31,4 km/h (5 Bft) 93,62 %
10.11.2015 18:30 14,1 C 13,9 C 12,8 C 91 % 0 lf 1022,8 hPa 0,0 l/m 0 min 0 min 0 W/m 27,2 km/h (4 Bft) 93,62 %
10.11.2015 18:32 14,1 C 13,9 C 12,8 C 91 % 0 lf 1022,8 hPa 0,0 l/m 0 min 0 min 0 W/m 18,8 km/h (3 Bft) 95,65 %
10.11.2015 18:34 14,1 C 13,9 C 12,8 C 91 % 0 lf 1022,8 hPa 0,0 l/m 0 min 0 min 0 W/m 27,2 km/h (4 Bft) 93,62 %
10.11.2015 18:36 14,1 C 13,9 C 12,8 C 91 % 0 lf 1023,0 hPa 0,0 l/m 0 min 0 min 0 W/m 41,8 km/h (6 Bft) 93,62 %
10.11.2015 18:38 14,1 C 13,9 C 12,8 C 91 % 0 lf 1022,8 hPa 0,0 l/m 0 min 0 min 0 W/m 29,3 km/h (5 Bft) 89,36 %
10.11.2015 18:40 14,1 C 13,9 C 12,8 C 91 % 0 lf 1022,9 hPa 0,0 l/m 0 min 0 min 0 W/m 25,1 km/h (4 Bft) 93,62 %
10.11.2015 18:42 14,1 C 13,9 C 12,8 C 91 % 0 lf 1022,9 hPa 0,0 l/m 0 min 0 min 0 W/m 18,8 km/h (3 Bft) 93,62 %
10.11.2015 18:44 14,0 C 13,9 C 12,8 C 91 % 0 lf 1022,9 hPa 0,0 l/m 0 min 0 min 0 W/m 25,1 km/h (4 Bft) 97,83 %
10.11.2015 18:46 14,0 C 13,9 C 12,8 C 91 % 0 lf 1022,9 hPa 0,0 l/m 0 min 0 min 0 W/m 27,2 km/h (4 Bft) 95,74 %
10.11.2015 18:48 14,0 C 13,9 C 12,8 C 92 % 0 lf 1022,9 hPa 0,0 l/m 0 min 0 min 0 W/m 31,4 km/h (5 Bft) 95,74 %
10.11.2015 18:50 14,0 C 13,9 C 12,8 C 92 % 0 lf 1022,9 hPa 0,0 l/m 0 min 0 min 0 W/m 20,9 km/h (4 Bft) 93,62 %
10.11.2015 18:52 14,0 C 13,9 C 12,8 C 92 % 0 lf 1022,9 hPa 0,0 l/m 0 min 0 min 0 W/m 20,9 km/h (4 Bft) 95,74 %
10.11.2015 18:54 13,9 C 13,9 C 12,8 C 91 % 0 lf 1022,9 hPa 0,0 l/m 0 min 0 min 0 W/m 29,3 km/h (5 Bft) 89,36 %
10.11.2015 18:56 13,9 C 13,9 C 12,8 C 91 % 0 lf 1022,7 hPa 0,0 l/m 0 min 0 min 0 W/m 27,2 km/h (4 Bft) 95,65 %
10.11.2015 18:58 13,9 C 13,9 C 12,8 C 92 % 0 lf 1022,8 hPa 0,0 l/m 0 min 0 min 0 W/m 29,3 km/h (5 Bft) 93,62 %
10.11.2015 19:00 13,9 C 13,9 C 12,8 C 92 % 0 lf 1022,8 hPa 0,0 l/m 0 min 0 min 0 W/m 29,3 km/h (5 Bft) 95,74 %
10.11.2015 19:02 13,9 C 13,9 C 12,8 C 92 % 0 lf 1022,7 hPa 0,0 l/m 0 min 0 min 0 W/m 29,3 km/h (5 Bft) 95,74 %
10.11.2015 19:04 13,9 C 13,9 C 12,8 C 92 % 0 lf 1022,8 hPa 0,0 l/m 0 min 0 min 0 W/m 31,4 km/h (5 Bft) 95,74 %
10.11.2015 19:06 13,9 C 13,9 C 12,8 C 92 % 0 lf 1022,8 hPa 0,0 l/m 0 min 0 min 0 W/m 20,9 km/h (4 Bft) 95,74 %
10.11.2015 19:08 13,9 C 13,9 C 12,8 C 92 % 0 lf 1022,7 hPa 0,0 l/m 0 min 0 min 0 W/m 27,2 km/h (4 Bft) 97,83 %
10.11.2015 19:10 13,9 C 13,9 C 12,8 C 92 % 0 lf 1022,8 hPa 0,0 l/m 0 min 0 min 0 W/m 29,3 km/h (5 Bft) 93,62 %
10.11.2015 19:12 13,9 C 13,9 C 12,8 C 92 % 0 lf 1022,8 hPa 0,0 l/m 0 min 0 min 0 W/m 29,3 km/h (5 Bft) 97,87 %
10.11.2015 19:14 13,9 C 13,9 C 12,8 C 92 % 0 lf 1022,8 hPa 0,0 l/m 0 min 0 min 0 W/m 33,5 km/h (5 Bft) 95,74 %
10.11.2015 19:16 13,8 C 13,9 C 12,8 C 92 % 0 lf 1022,9 hPa 0,0 l/m 0 min 0 min 0 W/m 37,7 km/h (5 Bft) 95,74 %
10.11.2015 19:18 13,8 C 13,9 C 12,8 C 92 % 0 lf 1022,9 hPa 0,0 l/m 0 min 0 min 0 W/m 27,2 km/h (4 Bft) 97,87 %
10.11.2015 19:20 13,8 C 13,9 C 12,8 C 92 % 0 lf 1023,0 hPa 0,0 l/m 0 min 0 min 0 W/m 35,6 km/h (5 Bft) 100,00 %
10.11.2015 19:22 13,8 C 13,9 C 12,8 C 92 % 0 lf 1023,0 hPa 0,0 l/m 0 min 0 min 0 W/m 33,5 km/h (5 Bft) 100,00 %
10.11.2015 19:24 13,8 C 13,9 C 12,8 C 92 % 0 lf 1023,0 hPa 0,0 l/m 0 min 0 min 0 W/m 35,6 km/h (5 Bft) 95,74 %
10.11.2015 19:26 13,8 C 13,9 C 12,8 C 92 % 0 lf 1022,9 hPa 0,0 l/m 0 min 0 min 0 W/m 27,2 km/h (4 Bft) 97,87 %
10.11.2015 19:28 13,8 C 13,9 C 12,2 C 92 % 0 lf 1023,0 hPa 0,0 l/m 0 min 0 min 0 W/m 31,4 km/h (5 Bft) 95,74 %
10.11.2015 19:30 13,8 C 13,9 C 12,2 C 92 % 0 lf 1023,0 hPa 0,0 l/m 0 min 0 min 0 W/m 27,2 km/h (4 Bft) 97,83 %
10.11.2015 19:32 13,8 C 13,9 C 12,2 C 92 % 0 lf 1022,9 hPa 0,0 l/m 0 min 0 min 0 W/m 31,4 km/h (5 Bft) 100,00 %
10.11.2015 19:34 13,8 C 13,9 C 12,2 C 92 % 0 lf 1022,8 hPa 0,0 l/m 0 min 0 min 0 W/m 20,9 km/h (4 Bft) 95,74 %
10.11.2015 19:36 13,8 C 13,9 C 12,2 C 92 % 0 lf 1022,8 hPa 0,0 l/m 0 min 0 min 0 W/m 31,4 km/h (5 Bft) 91,49 %
10.11.2015 19:38 13,8 C 13,9 C 12,2 C 92 % 0 lf 1022,9 hPa 0,0 l/m 0 min 0 min 0 W/m 23,0 km/h (4 Bft) 95,74 %
10.11.2015 19:40 13,7 C 13,9 C 12,2 C 92 % 0 lf 1022,9 hPa 0,0 l/m 0 min 0 min 0 W/m 27,2 km/h (4 Bft) 97,87 %
10.11.2015 19:42 13,7 C 13,9 C 12,2 C 92 % 0 lf 1022,9 hPa 0,0 l/m 0 min 0 min 0 W/m 33,5 km/h (5 Bft) 97,83 %
10.11.2015 19:44 13,7 C 13,9 C 12,2 C 93 % 0 lf 1022,9 hPa 0,0 l/m 0 min 0 min 0 W/m 27,2 km/h (4 Bft) 97,87 %
10.11.2015 19:46 13,7 C 13,9 C 12,2 C 93 % 0 lf 1022,9 hPa 0,0 l/m 0 min 0 min 0 W/m 27,2 km/h (4 Bft) 93,62 %
10.11.2015 19:48 13,7 C 13,9 C 12,2 C 93 % 0 lf 1022,9 hPa 0,0 l/m 0 min 0 min 0 W/m 29,3 km/h (5 Bft) 95,74 %
10.11.2015 19:50 13,7 C 13,9 C 12,2 C 92 % 0 lf 1022,8 hPa 0,0 l/m 0 min 0 min 0 W/m 29,3 km/h (5 Bft) 95,74 %
10.11.2015 19:52 13,7 C 13,9 C 12,2 C 92 % 0 lf 1022,8 hPa 0,0 l/m 0 min 0 min 0 W/m 41,8 km/h (6 Bft) 97,87 %
10.11.2015 19:54 13,7 C 13,9 C 12,2 C 92 % 0 lf 1022,9 hPa 0,0 l/m 0 min 0 min 0 W/m 23,0 km/h (4 Bft) 95,65 %
10.11.2015 19:56 13,7 C 13,9 C 12,2 C 93 % 0 lf 1022,9 hPa 0,0 l/m 0 min 0 min 0 W/m 31,4 km/h (5 Bft) 97,87 %
10.11.2015 19:58 13,7 C 13,9 C 12,2 C 93 % 0 lf 1023,0 hPa 0,0 l/m 0 min 0 min 0 W/m 31,4 km/h (5 Bft) 97,87 %
10.11.2015 20:00 13,7 C 13,9 C 12,2 C 93 % 0 lf 1023,0 hPa 0,0 l/m 0 min 0 min 0 W/m 31,4 km/h (5 Bft) 97,87 %
10.11.2015 20:02 13,7 C 13,9 C 12,2 C 93 % 0 lf 1023,0 hPa 0,0 l/m 0 min 0 min 0 W/m 27,2 km/h (4 Bft) 95,74 %
10.11.2015 20:04 13,7 C 13,9 C 12,2 C 93 % 0 lf 1023,1 hPa 0,0 l/m 0 min 0 min 0 W/m 25,1 km/h (4 Bft) 97,87 %
10.11.2015 20:06 13,7 C 13,9 C 12,2 C 93 % 0 lf 1023,1 hPa 0,0 l/m 0 min 0 min 0 W/m 31,4 km/h (5 Bft) 95,65 %
10.11.2015 20:08 13,7 C 13,9 C 12,2 C 93 % 0 lf 1023,1 hPa 0,0 l/m 0 min 0 min 0 W/m 23,0 km/h (4 Bft) 95,74 %
10.11.2015 20:10 13,7 C 13,9 C 12,2 C 93 % 0 lf 1023,1 hPa 0,0 l/m 0 min 0 min 0 W/m 27,2 km/h (4 Bft) 97,87 %
10.11.2015 20:12 13,7 C 13,9 C 12,2 C 93 % 0 lf 1023,2 hPa 0,0 l/m 0 min 0 min 0 W/m 25,1 km/h (4 Bft) 95,74 %
10.11.2015 20:14 13,7 C 13,9 C 12,2 C 93 % 0 lf 1023,2 hPa 0,0 l/m 0 min 0 min 0 W/m 31,4 km/h (5 Bft) 95,74 %
10.11.2015 20:16 13,6 C 13,9 C 12,2 C 93 % 0 lf 1023,2 hPa 0,0 l/m 0 min 0 min 0 W/m 25,1 km/h (4 Bft) 97,87 %
10.11.2015 20:18 13,6 C 13,9 C 12,2 C 93 % 0 lf 1023,3 hPa 0,0 l/m 0 min 0 min 0 W/m 35,6 km/h (5 Bft) 97,83 %
10.11.2015 20:20 13,6 C 13,9 C 12,2 C 93 % 0 lf 1023,3 hPa 0,0 l/m 0 min 0 min 0 W/m 31,4 km/h (5 Bft) 97,87 %
10.11.2015 20:22 13,6 C 13,9 C 12,2 C 93 % 0 lf 1023,3 hPa 0,0 l/m 0 min 0 min 0 W/m 35,6 km/h (5 Bft) 97,87 %
10.11.2015 20:24 13,6 C 13,9 C 12,2 C 93 % 0 lf 1023,3 hPa 0,0 l/m 0 min 0 min 0 W/m 31,4 km/h (5 Bft) 97,87 %
10.11.2015 20:26 13,6 C 13,9 C 12,2 C 93 % 0 lf 1023,3 hPa 0,0 l/m 0 min 0 min 0 W/m 31,4 km/h (5 Bft) 97,87 %
10.11.2015 20:28 13,6 C 13,9 C 12,2 C 93 % 0 lf 1023,3 hPa 0,0 l/m 0 min 0 min 0 W/m 29,3 km/h (5 Bft) 100,00 %
10.11.2015 20:30 13,6 C 13,9 C 12,2 C 93 % 0 lf 1023,4 hPa 0,0 l/m 0 min 0 min 0 W/m 35,6 km/h (5 Bft) 93,48 %
10.11.2015 20:32 13,6 C 13,9 C 12,2 C 93 % 0 lf 1023,3 hPa 0,0 l/m 0 min 0 min 0 W/m 31,4 km/h (5 Bft) 97,87 %
10.11.2015 20:34 13,6 C 13,9 C 12,2 C 93 % 0 lf 1023,3 hPa 0,0 l/m 0 min 0 min 0 W/m 27,2 km/h (4 Bft) 97,87 %
10.11.2015 20:36 13,6 C 13,9 C 12,2 C 93 % 0 lf 1023,3 hPa 0,0 l/m 0 min 0 min 0 W/m 33,5 km/h (5 Bft) 93,62 %
10.11.2015 20:38 13,6 C 13,9 C 12,2 C 93 % 0 lf 1023,3 hPa 0,0 l/m 0 min 0 min 0 W/m 29,3 km/h (5 Bft) 93,62 %
10.11.2015 20:40 13,6 C 13,9 C 12,2 C 93 % 0 lf 1023,4 hPa 0,0 l/m 0 min 0 min 0 W/m 41,8 km/h (6 Bft) 97,83 %
10.11.2015 20:42 13,6 C 13,9 C 12,2 C 93 % 0 lf 1023,3 hPa 0,0 l/m 0 min 0 min 0 W/m 35,6 km/h (5 Bft) 95,74 %
10.11.2015 20:44 13,6 C 13,9 C 12,2 C 93 % 0 lf 1023,3 hPa 0,0 l/m 0 min 0 min 0 W/m 33,5 km/h (5 Bft) 95,74 %
10.11.2015 20:46 13,6 C 13,9 C 12,2 C 93 % 0 lf 1023,3 hPa 0,0 l/m 0 min 0 min 0 W/m 27,2 km/h (4 Bft) 97,87 %
10.11.2015 20:48 13,6 C 13,9 C 12,2 C 93 % 0 lf 1023,2 hPa 0,0 l/m 0 min 0 min 0 W/m 35,6 km/h (5 Bft) 95,74 %
10.11.2015 20:50 13,6 C 13,9 C 12,2 C 93 % 0 lf 1023,3 hPa 0,0 l/m 0 min 0 min 0 W/m 35,6 km/h (5 Bft) 95,74 %
10.11.2015 20:52 13,6 C 13,9 C 12,2 C 93 % 0 lf 1023,2 hPa 0,0 l/m 0 min 0 min 0 W/m 31,4 km/h (5 Bft) 91,30 %
10.11.2015 20:54 13,6 C 13,9 C 12,2 C 93 % 0 lf 1023,2 hPa 0,0 l/m 0 min 0 min 0 W/m 23,0 km/h (4 Bft) 95,74 %
10.11.2015 20:56 13,6 C 13,9 C 12,2 C 93 % 0 lf 1023,2 hPa 0,0 l/m 0 min 0 min 0 W/m 29,3 km/h (5 Bft) 93,62 %
10.11.2015 20:58 13,6 C 13,9 C 12,2 C 93 % 0 lf 1023,2 hPa 0,0 l/m 0 min 0 min 0 W/m 37,7 km/h (5 Bft) 93,62 %
10.11.2015 21:00 13,6 C 13,9 C 12,2 C 93 % 0 lf 1023,2 hPa 0,0 l/m 0 min 0 min 0 W/m 29,3 km/h (5 Bft) 95,74 %
10.11.2015 21:02 13,6 C 13,9 C 12,2 C 93 % 0 lf 1023,2 hPa 0,0 l/m 0 min 0 min 0 W/m 35,6 km/h (5 Bft) 93,62 %
10.11.2015 21:04 13,6 C 13,9 C 12,2 C 93 % 0 lf 1023,3 hPa 0,0 l/m 0 min 0 min 0 W/m 31,4 km/h (5 Bft) 93,48 %
10.11.2015 21:06 13,6 C 13,9 C 12,2 C 93 % 0 lf 1023,3 hPa 0,0 l/m 0 min 0 min 0 W/m 29,3 km/h (5 Bft) 97,87 %
10.11.2015 21:08 13,6 C 13,9 C 12,2 C 93 % 0 lf 1023,1 hPa 0,0 l/m 0 min 0 min 0 W/m 23,0 km/h (4 Bft) 95,74 %
10.11.2015 21:10 13,6 C 13,9 C 12,2 C 93 % 0 lf 1023,3 hPa 0,0 l/m 0 min 0 min 0 W/m 29,3 km/h (5 Bft) 97,87 %
10.11.2015 21:12 13,6 C 13,9 C 12,2 C 94 % 0 lf 1023,2 hPa 0,0 l/m 0 min 0 min 0 W/m 29,3 km/h (5 Bft) 95,74 %
10.11.2015 21:14 13,6 C 13,9 C 12,2 C 94 % 0 lf 1023,3 hPa 0,0 l/m 0 min 0 min 0 W/m 20,9 km/h (4 Bft) 95,74 %
10.11.2015 21:16 13,6 C 13,9 C 12,2 C 94 % 0 lf 1023,2 hPa 0,0 l/m 0 min 0 min 0 W/m 29,3 km/h (5 Bft) 95,65 %
10.11.2015 21:18 13,6 C 13,9 C 12,2 C 94 % 0 lf 1023,2 hPa 0,0 l/m 0 min 0 min 0 W/m 35,6 km/h (5 Bft) 97,87 %
10.11.2015 21:20 13,6 C 13,9 C 12,2 C 94 % 0 lf 1023,2 hPa 0,0 l/m 0 min 0 min 0 W/m 29,3 km/h (5 Bft) 97,87 %
10.11.2015 21:22 13,5 C 13,9 C 12,2 C 94 % 0 lf 1023,2 hPa 0,0 l/m 0 min 0 min 0 W/m 29,3 km/h (5 Bft) 97,87 %
10.11.2015 21:24 13,5 C 13,9 C 12,2 C 94 % 0 lf 1023,2 hPa 0,0 l/m 0 min 0 min 0 W/m 25,1 km/h (4 Bft) 95,74 %
10.11.2015 21:26 13,5 C 13,9 C 12,2 C 94 % 0 lf 1023,2 hPa 0,0 l/m 0 min 0 min 0 W/m 23,0 km/h (4 Bft) 97,87 %
10.11.2015 21:28 13,5 C 13,9 C 12,2 C 94 % 0 lf 1023,2 hPa 0,0 l/m 0 min 0 min 0 W/m 31,4 km/h (5 Bft) 95,65 %
10.11.2015 21:30 13,5 C 13,9 C 12,2 C 93 % 0 lf 1023,1 hPa 0,0 l/m 0 min 0 min 0 W/m 29,3 km/h (5 Bft) 95,74 %
10.11.2015 21:32 13,5 C 13,9 C 12,2 C 94 % 0 lf 1023,2 hPa 0,0 l/m 0 min 0 min 0 W/m 27,2 km/h (4 Bft) 97,87 %
10.11.2015 21:34 13,5 C 13,9 C 12,2 C 94 % 0 lf 1023,2 hPa 0,0 l/m 0 min 0 min 0 W/m 29,3 km/h (5 Bft) 97,87 %
10.11.2015 21:36 13,5 C 13,9 C 12,2 C 94 % 0 lf 1023,2 hPa 0,0 l/m 0 min 0 min 0 W/m 25,1 km/h (4 Bft) 97,87 %
10.11.2015 21:38 13,5 C 13,9 C 12,2 C 94 % 0 lf 1023,2 hPa 0,0 l/m 0 min 0 min 0 W/m 23,0 km/h (4 Bft) 95,74 %
10.11.2015 21:40 13,5 C 13,9 C 12,2 C 94 % 0 lf 1023,2 hPa 0,0 l/m 0 min 0 min 0 W/m 14,6 km/h (3 Bft) 100,00 %
10.11.2015 21:42 13,5 C 13,9 C 12,2 C 94 % 0 lf 1023,2 hPa 0,0 l/m 0 min 0 min 0 W/m 31,4 km/h (5 Bft) 100,00 %
10.11.2015 21:44 13,5 C 13,9 C 12,2 C 94 % 0 lf 1023,2 hPa 0,0 l/m 0 min 0 min 0 W/m 27,2 km/h (4 Bft) 97,87 %
10.11.2015 21:46 13,5 C 13,9 C 12,2 C 94 % 0 lf 1023,2 hPa 0,0 l/m 0 min 0 min 0 W/m 29,3 km/h (5 Bft) 100,00 %
10.11.2015 21:48 13,5 C 13,9 C 12,2 C 94 % 0 lf 1023,1 hPa 0,0 l/m 0 min 0 min 0 W/m 31,4 km/h (5 Bft) 95,74 %
10.11.2015 21:50 13,5 C 13,9 C 12,2 C 94 % 0 lf 1023,1 hPa 0,0 l/m 0 min 0 min 0 W/m 33,5 km/h (5 Bft) 93,62 %
10.11.2015 21:52 13,5 C 13,9 C 12,2 C 94 % 0 lf 1023,1 hPa 0,0 l/m 0 min 0 min 0 W/m 25,1 km/h (4 Bft) 93,62 %
10.11.2015 21:54 13,6 C 13,9 C 12,2 C 94 % 0 lf 1023,1 hPa 0,0 l/m 0 min 0 min 0 W/m 29,3 km/h (5 Bft) 95,74 %
10.11.2015 21:56 13,6 C 13,9 C 12,2 C 94 % 0 lf 1023,2 hPa 0,0 l/m 0 min 0 min 0 W/m 33,5 km/h (5 Bft) 97,87 %
10.11.2015 21:58 13,6 C 13,9 C 12,2 C 94 % 0 lf 1023,2 hPa 0,0 l/m 0 min 0 min 0 W/m 29,3 km/h (5 Bft) 95,74 %
10.11.2015 22:00 13,6 C 13,9 C 12,2 C 94 % 0 lf 1023,2 hPa 0,0 l/m 0 min 0 min 0 W/m 23,0 km/h (4 Bft) 95,74 %
10.11.2015 22:02 13,6 C 13,9 C 12,2 C 94 % 0 lf 1023,2 hPa 0,0 l/m 0 min 0 min 0 W/m 29,3 km/h (5 Bft) 100,00 %
10.11.2015 22:04 13,6 C 13,9 C 12,2 C 94 % 0 lf 1023,2 hPa 0,0 l/m 0 min 0 min 0 W/m 31,4 km/h (5 Bft) 97,83 %
10.11.2015 22:06 13,6 C 13,9 C 12,2 C 94 % 0 lf 1023,2 hPa 0,0 l/m 0 min 0 min 0 W/m 27,2 km/h (4 Bft) 97,87 %
10.11.2015 22:08 13,6 C 13,9 C 12,2 C 94 % 0 lf 1023,2 hPa 0,0 l/m 0 min 0 min 0 W/m 25,1 km/h (4 Bft) 95,74 %
10.11.2015 22:10 13,6 C 13,9 C 12,2 C 94 % 0 lf 1023,2 hPa 0,0 l/m 0 min 0 min 0 W/m 29,3 km/h (5 Bft) 95,74 %
10.11.2015 22:12 13,6 C 13,9 C 12,2 C 94 % 0 lf 1023,2 hPa 0,0 l/m 0 min 0 min 0 W/m 33,5 km/h (5 Bft) 97,87 %
10.11.2015 22:14 13,6 C 13,9 C 12,2 C 94 % 0 lf 1023,2 hPa 0,0 l/m 0 min 0 min 0 W/m 29,3 km/h (5 Bft) 93,48 %
10.11.2015 22:16 13,6 C 13,9 C 12,2 C 94 % 0 lf 1023,2 hPa 0,0 l/m 0 min 0 min 0 W/m 27,2 km/h (4 Bft) 93,62 %
10.11.2015 22:18 13,6 C 13,9 C 12,2 C 94 % 0 lf 1023,3 hPa 0,0 l/m 0 min 0 min 0 W/m 33,5 km/h (5 Bft) 95,74 %
10.11.2015 22:20 13,6 C 13,9 C 12,2 C 94 % 0 lf 1023,3 hPa 0,0 l/m 0 min 0 min 0 W/m 39,7 km/h (6 Bft) 97,87 %
10.11.2015 22:22 13,6 C 13,9 C 12,2 C 94 % 0 lf 1023,4 hPa 0,0 l/m 0 min 0 min 0 W/m 29,3 km/h (5 Bft) 93,62 %
10.11.2015 22:24 13,6 C 13,9 C 12,2 C 94 % 0 lf 1023,3 hPa 0,0 l/m 0 min 0 min 0 W/m 46,0 km/h (6 Bft) 93,62 %
10.11.2015 22:26 13,6 C 13,9 C 12,2 C 94 % 0 lf 1023,4 hPa 0,0 l/m 0 min 0 min 0 W/m 23,0 km/h (4 Bft) 93,48 %
10.11.2015 22:28 13,6 C 13,9 C 12,2 C 94 % 0 lf 1023,4 hPa 0,0 l/m 0 min 0 min 0 W/m 33,5 km/h (5 Bft) 89,36 %
10.11.2015 22:30 13,6 C 13,9 C 12,2 C 94 % 0 lf 1023,4 hPa 0,0 l/m 0 min 0 min 0 W/m 29,3 km/h (5 Bft) 93,62 %
10.11.2015 22:32 13,6 C 13,9 C 12,2 C 94 % 0 lf 1023,4 hPa 0,0 l/m 0 min 0 min 0 W/m 23,0 km/h (4 Bft) 89,58 %
10.11.2015 22:34 13,6 C 13,9 C 12,2 C 94 % 0 lf 1023,4 hPa 0,0 l/m 0 min 0 min 0 W/m 31,4 km/h (5 Bft) 93,62 %
10.11.2015 22:36 13,6 C 13,9 C 12,2 C 94 % 0 lf 1023,4 hPa 0,0 l/m 0 min 0 min 0 W/m 37,7 km/h (5 Bft) 91,49 %
10.11.2015 22:38 13,6 C 13,9 C 12,2 C 94 % 0 lf 1023,5 hPa 0,0 l/m 0 min 0 min 0 W/m 29,3 km/h (5 Bft) 93,48 %
10.11.2015 22:40 13,6 C 13,9 C 12,2 C 94 % 0 lf 1023,4 hPa 0,0 l/m 0 min 0 min 0 W/m 31,4 km/h (5 Bft) 91,49 %
10.11.2015 22:42 13,6 C 13,9 C 12,2 C 94 % 0 lf 1023,4 hPa 0,0 l/m 0 min 0 min 0 W/m 29,3 km/h (5 Bft) 93,75 %
10.11.2015 22:44 13,6 C 13,9 C 12,2 C 94 % 0 lf 1023,5 hPa 0,0 l/m 0 min 0 min 0 W/m 27,2 km/h (4 Bft) 91,49 %
10.11.2015 22:46 13,6 C 13,9 C 12,2 C 94 % 0 lf 1023,5 hPa 0,0 l/m 0 min 0 min 0 W/m 33,5 km/h (5 Bft) 91,49 %
10.11.2015 22:48 13,6 C 13,9 C 12,2 C 94 % 0 lf 1023,5 hPa 0,0 l/m 0 min 0 min 0 W/m 27,2 km/h (4 Bft) 95,74 %
10.11.2015 22:50 13,6 C 13,9 C 12,2 C 94 % 0 lf 1023,5 hPa 0,0 l/m 0 min 0 min 0 W/m 23,0 km/h (4 Bft) 93,48 %
10.11.2015 22:52 13,6 C 13,9 C 12,2 C 94 % 0 lf 1023,5 hPa 0,0 l/m 0 min 0 min 0 W/m 25,1 km/h (4 Bft) 93,62 %
10.11.2015 22:54 13,6 C 13,9 C 12,2 C 94 % 0 lf 1023,5 hPa 0,0 l/m 0 min 0 min 0 W/m 27,2 km/h (4 Bft) 93,62 %
10.11.2015 22:56 13,6 C 13,9 C 12,2 C 94 % 0 lf 1023,4 hPa 0,0 l/m 0 min 0 min 0 W/m 25,1 km/h (4 Bft) 93,62 %
10.11.2015 22:58 13,6 C 13,9 C 12,2 C 94 % 0 lf 1023,3 hPa 0,0 l/m 0 min 0 min 0 W/m 25,1 km/h (4 Bft) 95,74 %
10.11.2015 23:00 13,6 C 13,9 C 12,2 C 94 % 0 lf 1023,3 hPa 0,0 l/m 0 min 0 min 0 W/m 31,4 km/h (5 Bft) 97,83 %
10.11.2015 23:02 13,6 C 13,9 C 12,2 C 94 % 0 lf 1023,3 hPa 0,0 l/m 0 min 0 min 0 W/m 31,4 km/h (5 Bft) 93,62 %
10.11.2015 23:04 13,6 C 13,9 C 12,2 C 94 % 0 lf 1023,3 hPa 0,0 l/m 0 min 0 min 0 W/m 23,0 km/h (4 Bft) 97,87 %
10.11.2015 23:06 13,6 C 13,9 C 12,2 C 94 % 0 lf 1023,4 hPa 0,0 l/m 0 min 0 min 0 W/m 25,1 km/h (4 Bft) 95,74 %
10.11.2015 23:08 13,6 C 13,9 C 12,2 C 94 % 0 lf 1023,3 hPa 0,0 l/m 0 min 0 min 0 W/m 25,1 km/h (4 Bft) 93,62 %
10.11.2015 23:10 13,6 C 13,9 C 12,2 C 94 % 0 lf 1023,4 hPa 0,0 l/m 0 min 0 min 0 W/m 35,6 km/h (5 Bft) 97,87 %
10.11.2015 23:12 13,6 C 13,9 C 12,2 C 94 % 0 lf 1023,4 hPa 0,0 l/m 0 min 0 min 0 W/m 23,0 km/h (4 Bft) 93,48 %
10.11.2015 23:14 13,6 C 13,9 C 12,2 C 94 % 0 lf 1023,4 hPa 0,0 l/m 0 min 0 min 0 W/m 29,3 km/h (5 Bft) 100,00 %
10.11.2015 23:16 13,6 C 13,9 C 12,2 C 94 % 0 lf 1023,3 hPa 0,0 l/m 0 min 0 min 0 W/m 20,9 km/h (4 Bft) 100,00 %
10.11.2015 23:18 13,6 C 13,9 C 12,2 C 94 % 0 lf 1023,4 hPa 0,0 l/m 0 min 0 min 0 W/m 27,2 km/h (4 Bft) 97,87 %
10.11.2015 23:20 13,6 C 13,9 C 12,2 C 94 % 0 lf 1023,4 hPa 0,0 l/m 0 min 0 min 0 W/m 29,3 km/h (5 Bft) 95,74 %
10.11.2015 23:22 13,6 C 13,9 C 12,2 C 94 % 0 lf 1023,4 hPa 0,0 l/m 0 min 0 min 0 W/m 20,9 km/h (4 Bft) 100,00 %
10.11.2015 23:24 13,6 C 13,9 C 12,2 C 94 % 0 lf 1023,4 hPa 0,0 l/m 0 min 0 min 0 W/m 23,0 km/h (4 Bft) 97,83 %
10.11.2015 23:26 13,6 C 13,9 C 12,2 C 94 % 0 lf 1023,4 hPa 0,0 l/m 0 min 0 min 0 W/m 16,7 km/h (3 Bft) 100,00 %
10.11.2015 23:28 13,6 C 13,9 C 12,2 C 94 % 0 lf 1023,4 hPa 0,0 l/m 0 min 0 min 0 W/m 14,6 km/h (3 Bft) 91,49 %
10.11.2015 23:30 13,6 C 13,9 C 12,2 C 94 % 0 lf 1023,3 hPa 0,0 l/m 0 min 0 min 0 W/m 23,0 km/h (4 Bft) 100,00 %
10.11.2015 23:32 13,6 C 13,9 C 12,2 C 94 % 0 lf 1023,4 hPa 0,0 l/m 0 min 0 min 0 W/m 33,5 km/h (5 Bft) 100,00 %
10.11.2015 23:34 13,6 C 13,9 C 12,2 C 94 % 0 lf 1023,3 hPa 0,0 l/m 0 min 0 min 0 W/m 25,1 km/h (4 Bft) 97,87 %
10.11.2015 23:36 13,6 C 13,9 C 12,2 C 94 % 0 lf 1023,4 hPa 0,0 l/m 0 min 0 min 0 W/m 29,3 km/h (5 Bft) 97,83 %
10.11.2015 23:38 13,6 C 13,9 C 12,2 C 93 % 0 lf 1023,4 hPa 0,0 l/m 0 min 0 min 0 W/m 18,8 km/h (3 Bft) 97,87 %
10.11.2015 23:40 13,6 C 13,9 C 12,2 C 93 % 0 lf 1023,4 hPa 0,0 l/m 0 min 0 min 0 W/m 27,2 km/h (4 Bft) 100,00 %
10.11.2015 23:42 13,6 C 13,9 C 12,2 C 93 % 0 lf 1023,4 hPa 0,0 l/m 0 min 0 min 0 W/m 23,0 km/h (4 Bft) 100,00 %
10.11.2015 23:44 13,6 C 13,9 C 12,2 C 93 % 0 lf 1023,3 hPa 0,0 l/m 0 min 0 min 0 W/m 31,4 km/h (5 Bft) 93,62 %
10.11.2015 23:46 13,6 C 13,9 C 12,2 C 93 % 0 lf 1023,3 hPa 0,0 l/m 0 min 0 min 0 W/m 27,2 km/h (4 Bft) 97,87 %
10.11.2015 23:48 13,6 C 13,9 C 12,2 C 93 % 0 lf 1023,2 hPa 0,0 l/m 0 min 0 min 0 W/m 31,4 km/h (5 Bft) 97,83 %
10.11.2015 23:50 13,6 C 13,9 C 12,2 C 93 % 0 lf 1023,3 hPa 0,0 l/m 0 min 0 min 0 W/m 27,2 km/h (4 Bft) 95,74 %
10.11.2015 23:52 13,6 C 13,9 C 12,2 C 93 % 0 lf 1023,3 hPa 0,0 l/m 0 min 0 min 0 W/m 27,2 km/h (4 Bft) 97,87 %
10.11.2015 23:54 13,6 C 13,9 C 12,2 C 93 % 0 lf 1023,4 hPa 0,0 l/m 0 min 0 min 0 W/m 23,0 km/h (4 Bft) 97,87 %
10.11.2015 23:56 13,6 C 13,9 C 12,2 C 93 % 0 lf 1023,4 hPa 0,0 l/m 0 min 0 min 0 W/m 25,1 km/h (4 Bft) 95,74 %
10.11.2015 23:58 13,6 C 13,9 C 12,2 C 93 % 0 lf 1023,4 hPa 0,0 l/m 0 min 0 min 0 W/m 23,0 km/h (4 Bft) 93,62 %
_ Min-Zeit 07:06 06:46 04:58 00:00 00:00 06:12 - - - - 18:06 12:24
Minimum _ 13,0 C 12,8 C 11,7 C 73 % 0 lf 1021,3 hPa - - - - 12,6 km/h (3 Bft) 68,00 %
_ Max-Zeit 16:10 15:22 14:50 21:12 01:10 11:18 00:00 15:52 01:10 14:04 00:28 00:52
Maximum _ 14,4 C 15,0 C 13,3 C 94 % 2 lf 1023,5 hPa 0,0 l/m 2 min 2 min 86 W/m 60,7 km/h
W-SW (7 Bft)
100,00 %
Durchschnitt _ 13,7 C 13,9 C 12,4 C 87 % 0 lf 1022,6 hPa #0,0 l/m #24 min. #2 min. 47 W/m 31,2 km/h (5 Bft) 95,96 %
© 2015 W. Hausmann